Wetterdaten: Mittwoch, 29.03.2023
Datum Zeit Temp. Aussen Temp. o. S. Temp +5cm Feuchte Auss Luftdruck Regen Sonnenschein Regendauer Solar Windben Empfang
29.03.2023 00:00 5,3 C 5,0 C 0,6 C 90 % 1019,9 hPa 0,0 l/m 0 min 0 min 0 W/m 12,9 km/h (3 Bft) 100,00 %
29.03.2023 00:02 5,3 C 5,0 C 0,6 C 90 % 1019,9 hPa 0,0 l/m 0 min 0 min 0 W/m 16,1 km/h (3 Bft) 100,00 %
29.03.2023 00:04 5,3 C 5,0 C 0,6 C 90 % 1019,9 hPa 0,0 l/m 0 min 0 min 0 W/m 6,4 km/h (2 Bft) 95,74 %
29.03.2023 00:08 5,3 C 5,0 C 0,6 C 90 % 1019,9 hPa 0,0 l/m 0 min 0 min 0 W/m 9,7 km/h (2 Bft) 100,00 %
29.03.2023 00:10 5,3 C 5,0 C 0,6 C 90 % 1019,9 hPa 0,0 l/m 0 min 0 min 0 W/m 9,7 km/h (2 Bft) 100,00 %
29.03.2023 00:12 5,3 C 5,0 C 0,6 C 90 % 1019,8 hPa 0,0 l/m 0 min 0 min 0 W/m 12,9 km/h (3 Bft) 100,00 %
29.03.2023 00:14 5,3 C 5,0 C 0,6 C 90 % 1019,8 hPa 0,0 l/m 0 min 0 min 0 W/m 12,9 km/h (3 Bft) 97,87 %
29.03.2023 00:16 5,3 C 4,4 C 0,6 C 90 % 1019,8 hPa 0,0 l/m 0 min 0 min 0 W/m 9,7 km/h (2 Bft) 100,00 %
29.03.2023 00:18 5,3 C 4,4 C 0,6 C 90 % 1019,8 hPa 0,0 l/m 0 min 0 min 0 W/m 16,1 km/h (3 Bft) 97,83 %
29.03.2023 00:20 5,3 C 5,0 C 0,6 C 90 % 1019,8 hPa 0,0 l/m 0 min 0 min 0 W/m 12,9 km/h (3 Bft) 100,00 %
29.03.2023 00:22 5,3 C 4,4 C 0,6 C 90 % 1019,7 hPa 0,0 l/m 0 min 0 min 0 W/m 12,9 km/h (3 Bft) 72,34 %
29.03.2023 00:24 5,3 C 4,4 C 0,6 C 90 % 1019,7 hPa 0,0 l/m 0 min 0 min 0 W/m 12,9 km/h (3 Bft) 85,11 %
29.03.2023 00:26 5,3 C 4,4 C 0,6 C 90 % 1019,5 hPa 0,0 l/m 0 min 0 min 0 W/m 16,1 km/h (3 Bft) 97,87 %
29.03.2023 00:28 5,3 C 4,4 C 0,6 C 90 % 1019,5 hPa 0,0 l/m 0 min 0 min 0 W/m 12,9 km/h (3 Bft) 100,00 %
29.03.2023 00:30 5,3 C 4,4 C 0,6 C 90 % 1019,4 hPa 0,0 l/m 0 min 0 min 0 W/m 16,1 km/h (3 Bft) 100,00 %
29.03.2023 00:32 5,3 C 4,4 C 0,6 C 90 % 1019,4 hPa 0,0 l/m 0 min 0 min 0 W/m 22,5 km/h (4 Bft) 100,00 %
29.03.2023 00:34 5,3 C 4,4 C 0,6 C 90 % 1019,4 hPa 0,0 l/m 0 min 0 min 0 W/m 16,1 km/h (3 Bft) 100,00 %
29.03.2023 00:36 5,3 C 4,4 C 0,6 C 91 % 1019,4 hPa 0,0 l/m 0 min 0 min 0 W/m 16,1 km/h (3 Bft) 100,00 %
29.03.2023 00:38 5,3 C 4,4 C 0,6 C 91 % 1019,4 hPa 0,0 l/m 0 min 0 min 0 W/m 16,1 km/h (3 Bft) 100,00 %
29.03.2023 00:40 5,3 C 4,4 C 0,6 C 91 % 1019,4 hPa 0,0 l/m 0 min 0 min 0 W/m 16,1 km/h (3 Bft) 97,87 %
29.03.2023 00:42 5,3 C 4,4 C 0,6 C 91 % 1019,3 hPa 0,0 l/m 0 min 0 min 0 W/m 19,3 km/h (3 Bft) 96,30 %
29.03.2023 00:44 5,3 C 4,4 C 0,6 C 91 % 1019,1 hPa 0,0 l/m 0 min 0 min 0 W/m 22,5 km/h (4 Bft) 97,83 %
29.03.2023 00:46 5,3 C 4,4 C 0,6 C 91 % 1019,1 hPa 0,0 l/m 0 min 0 min 0 W/m 16,1 km/h (3 Bft) 97,87 %
29.03.2023 00:48 5,3 C 4,4 C 0,6 C 91 % 1019,1 hPa 0,0 l/m 0 min 0 min 0 W/m 16,1 km/h (3 Bft) 97,87 %
29.03.2023 00:50 5,3 C 4,4 C 0,6 C 91 % 1019,1 hPa 0,0 l/m 0 min 0 min 0 W/m 19,3 km/h (3 Bft) 97,87 %
29.03.2023 00:52 5,3 C 4,4 C 0,6 C 91 % 1019,1 hPa 0,0 l/m 0 min 0 min 0 W/m 16,1 km/h (3 Bft) 93,62 %
29.03.2023 00:54 5,3 C 4,4 C 0,6 C 91 % 1019,1 hPa 0,0 l/m 0 min 0 min 0 W/m 19,3 km/h (3 Bft) 97,87 %
29.03.2023 00:56 5,3 C 4,4 C 0,6 C 91 % 1019,1 hPa 0,0 l/m 0 min 0 min 0 W/m 16,1 km/h (3 Bft) 93,62 %
29.03.2023 00:58 5,3 C 4,4 C 0,6 C 91 % 1019,1 hPa 0,0 l/m 0 min 0 min 0 W/m 16,1 km/h (3 Bft) 97,87 %
29.03.2023 01:00 5,3 C 4,4 C 0,6 C 91 % 1019,1 hPa 0,0 l/m 0 min 0 min 0 W/m 12,9 km/h (3 Bft) 97,92 %
29.03.2023 01:02 5,3 C 4,4 C 1,1 C 91 % 1019,2 hPa 0,0 l/m 0 min 0 min 0 W/m 12,9 km/h (3 Bft) 95,74 %
29.03.2023 01:04 5,3 C 4,4 C 1,1 C 91 % 1019,2 hPa 0,0 l/m 0 min 0 min 0 W/m 22,5 km/h (4 Bft) 97,56 %
29.03.2023 01:06 5,3 C 4,4 C 1,1 C 91 % 1019,1 hPa 0,0 l/m 0 min 0 min 0 W/m 16,1 km/h (3 Bft) 96,23 %
29.03.2023 01:08 5,3 C 4,4 C 1,1 C 91 % 1019,1 hPa 0,0 l/m 0 min 0 min 0 W/m 16,1 km/h (3 Bft) 97,56 %
29.03.2023 01:10 5,2 C 4,4 C 1,1 C 91 % 1019,1 hPa 0,0 l/m 0 min 0 min 0 W/m 16,1 km/h (3 Bft) 98,18 %
29.03.2023 01:12 5,2 C 4,4 C 1,1 C 91 % 1019,0 hPa 0,0 l/m 0 min 0 min 0 W/m 12,9 km/h (3 Bft) 97,87 %
29.03.2023 01:14 5,2 C 4,4 C 1,1 C 91 % 1019,0 hPa 0,0 l/m 0 min 0 min 0 W/m 12,9 km/h (3 Bft) 97,87 %
29.03.2023 01:16 5,2 C 4,4 C 1,1 C 91 % 1019,0 hPa 0,0 l/m 0 min 0 min 0 W/m 12,9 km/h (3 Bft) 100,00 %
29.03.2023 01:18 5,2 C 4,4 C 1,1 C 91 % 1019,0 hPa 0,0 l/m 0 min 0 min 0 W/m 16,1 km/h (3 Bft) 100,00 %
29.03.2023 01:20 5,2 C 4,4 C 1,1 C 91 % 1018,9 hPa 0,0 l/m 0 min 0 min 0 W/m 12,9 km/h (3 Bft) 97,87 %
29.03.2023 01:22 5,2 C 4,4 C 1,1 C 91 % 1018,9 hPa 0,0 l/m 0 min 0 min 0 W/m 12,9 km/h (3 Bft) 100,00 %
29.03.2023 01:24 5,2 C 4,4 C 1,1 C 91 % 1018,8 hPa 0,0 l/m 0 min 0 min 0 W/m 16,1 km/h (3 Bft) 97,87 %
29.03.2023 01:26 5,2 C 4,4 C 1,1 C 91 % 1018,8 hPa 0,0 l/m 0 min 0 min 0 W/m 16,1 km/h (3 Bft) 97,87 %
29.03.2023 01:28 5,2 C 4,4 C 1,1 C 91 % 1018,7 hPa 0,0 l/m 0 min 0 min 0 W/m 16,1 km/h (3 Bft) 95,74 %
29.03.2023 01:30 5,2 C 4,4 C 1,1 C 91 % 1018,6 hPa 0,0 l/m 0 min 0 min 0 W/m 12,9 km/h (3 Bft) 97,87 %
29.03.2023 01:32 5,2 C 4,4 C 1,1 C 91 % 1018,6 hPa 0,0 l/m 0 min 0 min 0 W/m 16,1 km/h (3 Bft) 97,87 %
29.03.2023 01:34 5,2 C 4,4 C 1,1 C 91 % 1018,6 hPa 0,0 l/m 0 min 0 min 0 W/m 12,9 km/h (3 Bft) 97,87 %
29.03.2023 01:36 5,2 C 4,4 C 1,1 C 91 % 1018,5 hPa 0,0 l/m 0 min 0 min 0 W/m 16,1 km/h (3 Bft) 95,74 %
29.03.2023 01:38 5,2 C 4,4 C 1,1 C 91 % 1018,5 hPa 0,0 l/m 0 min 0 min 0 W/m 12,9 km/h (3 Bft) 95,65 %
29.03.2023 01:40 5,2 C 4,4 C 1,1 C 91 % 1018,4 hPa 0,0 l/m 0 min 0 min 0 W/m 12,9 km/h (3 Bft) 97,87 %
29.03.2023 01:42 5,2 C 4,4 C 1,1 C 91 % 1018,4 hPa 0,0 l/m 0 min 0 min 0 W/m 19,3 km/h (3 Bft) 95,74 %
29.03.2023 01:44 5,2 C 4,4 C 1,1 C 91 % 1018,4 hPa 0,0 l/m 0 min 0 min 0 W/m 16,1 km/h (3 Bft) 97,87 %
29.03.2023 01:46 5,2 C 4,4 C 1,1 C 91 % 1018,4 hPa 0,0 l/m 0 min 0 min 0 W/m 16,1 km/h (3 Bft) 97,87 %
29.03.2023 01:48 5,2 C 4,4 C 1,1 C 91 % 1018,4 hPa 0,0 l/m 0 min 0 min 0 W/m 16,1 km/h (3 Bft) 97,87 %
29.03.2023 01:50 5,2 C 4,4 C 1,1 C 91 % 1018,3 hPa 0,0 l/m 0 min 0 min 0 W/m 12,9 km/h (3 Bft) 95,74 %
29.03.2023 01:52 5,2 C 4,4 C 1,1 C 91 % 1018,3 hPa 0,0 l/m 0 min 0 min 0 W/m 16,1 km/h (3 Bft) 95,74 %
29.03.2023 01:54 5,2 C 4,4 C 1,1 C 91 % 1018,3 hPa 0,0 l/m 0 min 0 min 0 W/m 12,9 km/h (3 Bft) 93,62 %
29.03.2023 01:56 5,2 C 4,4 C 1,1 C 91 % 1018,3 hPa 0,0 l/m 0 min 0 min 0 W/m 22,5 km/h (4 Bft) 95,74 %
29.03.2023 01:58 5,2 C 4,4 C 1,1 C 91 % 1018,2 hPa 0,0 l/m 0 min 0 min 0 W/m 22,5 km/h (4 Bft) 95,74 %
29.03.2023 02:00 5,2 C 4,4 C 1,1 C 91 % 1018,2 hPa 0,0 l/m 0 min 0 min 0 W/m 16,1 km/h (3 Bft) 93,75 %
29.03.2023 02:02 5,2 C 4,4 C 1,1 C 91 % 1018,1 hPa 0,0 l/m 0 min 0 min 0 W/m 22,5 km/h (4 Bft) 97,87 %
29.03.2023 02:04 5,2 C 4,4 C 1,1 C 91 % 1018,0 hPa 0,0 l/m 0 min 0 min 0 W/m 16,1 km/h (3 Bft) 97,83 %
29.03.2023 02:06 5,2 C 4,4 C 1,1 C 91 % 1018,1 hPa 0,0 l/m 0 min 0 min 0 W/m 16,1 km/h (3 Bft) 97,87 %
29.03.2023 02:08 5,2 C 4,4 C 1,1 C 91 % 1018,1 hPa 0,0 l/m 0 min 0 min 0 W/m 22,5 km/h (4 Bft) 97,87 %
29.03.2023 02:10 5,2 C 4,4 C 1,1 C 91 % 1018,0 hPa 0,0 l/m 0 min 0 min 0 W/m 19,3 km/h (3 Bft) 97,87 %
29.03.2023 02:12 5,2 C 4,4 C 1,1 C 91 % 1018,0 hPa 0,0 l/m 0 min 0 min 0 W/m 19,3 km/h (3 Bft) 95,74 %
29.03.2023 02:14 5,2 C 4,4 C 1,1 C 91 % 1018,0 hPa 0,0 l/m 0 min 0 min 0 W/m 6,4 km/h (2 Bft) 97,87 %
29.03.2023 02:16 5,2 C 4,4 C 1,1 C 91 % 1018,0 hPa 0,0 l/m 0 min 0 min 0 W/m 16,1 km/h (3 Bft) 97,87 %
29.03.2023 02:18 5,2 C 4,4 C 1,1 C 91 % 1017,9 hPa 0,0 l/m 0 min 0 min 0 W/m 16,1 km/h (3 Bft) 95,74 %
29.03.2023 02:20 5,2 C 4,4 C 1,1 C 91 % 1017,9 hPa 0,0 l/m 0 min 0 min 0 W/m 9,7 km/h (2 Bft) 100,00 %
29.03.2023 02:22 5,2 C 4,4 C 1,1 C 91 % 1018,0 hPa 0,0 l/m 0 min 0 min 0 W/m 9,7 km/h (2 Bft) 95,74 %
29.03.2023 02:24 5,2 C 4,4 C 1,1 C 91 % 1017,9 hPa 0,0 l/m 0 min 0 min 0 W/m 12,9 km/h (3 Bft) 97,83 %
29.03.2023 02:26 5,2 C 4,4 C 1,1 C 91 % 1018,0 hPa 0,0 l/m 0 min 0 min 0 W/m 16,1 km/h (3 Bft) 95,74 %
29.03.2023 02:28 5,2 C 4,4 C 1,1 C 91 % 1017,9 hPa 0,0 l/m 0 min 0 min 0 W/m 16,1 km/h (3 Bft) 95,74 %
29.03.2023 02:30 5,2 C 4,4 C 1,1 C 91 % 1017,8 hPa 0,0 l/m 0 min 0 min 0 W/m 16,1 km/h (3 Bft) 97,87 %
29.03.2023 02:32 5,2 C 4,4 C 1,1 C 91 % 1017,8 hPa 0,0 l/m 0 min 0 min 0 W/m 12,9 km/h (3 Bft) 95,74 %
29.03.2023 02:34 5,2 C 4,4 C 1,1 C 91 % 1017,8 hPa 0,0 l/m 0 min 0 min 0 W/m 16,1 km/h (3 Bft) 93,62 %
29.03.2023 02:36 5,2 C 4,4 C 1,1 C 91 % 1017,8 hPa 0,0 l/m 0 min 0 min 0 W/m 12,9 km/h (3 Bft) 95,65 %
29.03.2023 02:38 5,2 C 5,0 C 1,1 C 91 % 1017,9 hPa 0,0 l/m 0 min 0 min 0 W/m 12,9 km/h (3 Bft) 95,74 %
29.03.2023 02:40 5,2 C 5,0 C 1,1 C 91 % 1017,9 hPa 0,0 l/m 0 min 0 min 0 W/m 12,9 km/h (3 Bft) 93,62 %
29.03.2023 02:42 5,3 C 5,0 C 1,1 C 91 % 1017,8 hPa 0,0 l/m 0 min 0 min 0 W/m 12,9 km/h (3 Bft) 93,75 %
29.03.2023 02:44 5,3 C 5,0 C 1,1 C 91 % 1017,8 hPa 0,0 l/m 0 min 0 min 0 W/m 12,9 km/h (3 Bft) 95,83 %
29.03.2023 02:46 5,3 C 5,0 C 1,1 C 91 % 1017,8 hPa 0,0 l/m 0 min 0 min 0 W/m 9,7 km/h (2 Bft) 95,83 %
29.03.2023 02:48 5,3 C 5,0 C 1,1 C 91 % 1017,8 hPa 0,0 l/m 0 min 0 min 0 W/m 12,9 km/h (3 Bft) 95,74 %
29.03.2023 02:50 5,3 C 5,0 C 1,1 C 91 % 1017,8 hPa 0,0 l/m 0 min 0 min 0 W/m 16,1 km/h (3 Bft) 97,87 %
29.03.2023 02:52 5,3 C 5,0 C 1,1 C 91 % 1017,7 hPa 0,0 l/m 0 min 0 min 0 W/m 12,9 km/h (3 Bft) 97,92 %
29.03.2023 02:54 5,3 C 5,0 C 1,1 C 90 % 1017,7 hPa 0,0 l/m 0 min 0 min 0 W/m 12,9 km/h (3 Bft) 97,62 %
29.03.2023 02:56 5,3 C 5,0 C 1,1 C 90 % 1017,7 hPa 0,0 l/m 0 min 0 min 0 W/m 12,9 km/h (3 Bft) 97,87 %
29.03.2023 02:58 5,3 C 5,0 C 1,7 C 90 % 1017,6 hPa 0,0 l/m 0 min 0 min 0 W/m 19,3 km/h (3 Bft) 100,00 %
29.03.2023 03:00 5,3 C 5,0 C 1,1 C 90 % 1017,7 hPa 0,0 l/m 0 min 0 min 0 W/m 12,9 km/h (3 Bft) 100,00 %
29.03.2023 03:02 5,3 C 5,0 C 1,1 C 90 % 1017,6 hPa 0,0 l/m 0 min 0 min 0 W/m 19,3 km/h (3 Bft) 100,00 %
29.03.2023 03:04 5,3 C 5,0 C 1,1 C 90 % 1017,5 hPa 0,0 l/m 0 min 0 min 0 W/m 16,1 km/h (3 Bft) 100,00 %
29.03.2023 03:06 5,3 C 5,0 C 1,1 C 90 % 1017,5 hPa 0,0 l/m 0 min 0 min 0 W/m 12,9 km/h (3 Bft) 97,87 %
29.03.2023 03:08 5,3 C 5,0 C 1,1 C 90 % 1017,5 hPa 0,0 l/m 0 min 0 min 0 W/m 12,9 km/h (3 Bft) 100,00 %
29.03.2023 03:10 5,3 C 5,0 C 1,7 C 90 % 1017,5 hPa 0,0 l/m 0 min 0 min 0 W/m 19,3 km/h (3 Bft) 100,00 %
29.03.2023 03:12 5,3 C 5,0 C 1,7 C 90 % 1017,5 hPa 0,0 l/m 0 min 0 min 0 W/m 16,1 km/h (3 Bft) 97,87 %
29.03.2023 03:14 5,3 C 5,0 C 1,7 C 90 % 1017,5 hPa 0,0 l/m 0 min 0 min 0 W/m 16,1 km/h (3 Bft) 100,00 %
29.03.2023 03:16 5,3 C 5,0 C 1,7 C 90 % 1017,5 hPa 0,0 l/m 0 min 0 min 0 W/m 16,1 km/h (3 Bft) 100,00 %
29.03.2023 03:18 5,3 C 5,0 C 1,7 C 90 % 1017,4 hPa 0,0 l/m 0 min 0 min 0 W/m 19,3 km/h (3 Bft) 97,87 %
29.03.2023 03:20 5,3 C 5,0 C 1,7 C 90 % 1017,4 hPa 0,0 l/m 0 min 0 min 0 W/m 16,1 km/h (3 Bft) 100,00 %
29.03.2023 03:22 5,3 C 5,0 C 1,7 C 90 % 1017,4 hPa 0,0 l/m 0 min 0 min 0 W/m 16,1 km/h (3 Bft) 100,00 %
29.03.2023 03:24 5,4 C 5,0 C 1,7 C 90 % 1017,4 hPa 0,0 l/m 0 min 0 min 0 W/m 16,1 km/h (3 Bft) 100,00 %
29.03.2023 03:26 5,4 C 5,0 C 1,7 C 90 % 1017,3 hPa 0,0 l/m 0 min 0 min 0 W/m 19,3 km/h (3 Bft) 97,87 %
29.03.2023 03:28 5,4 C 5,0 C 1,7 C 90 % 1017,3 hPa 0,0 l/m 0 min 0 min 0 W/m 12,9 km/h (3 Bft) 97,87 %
29.03.2023 03:30 5,4 C 5,0 C 1,7 C 90 % 1017,4 hPa 0,0 l/m 0 min 0 min 0 W/m 12,9 km/h (3 Bft) 97,87 %
29.03.2023 03:32 5,4 C 5,0 C 1,7 C 90 % 1017,4 hPa 0,0 l/m 0 min 0 min 0 W/m 6,4 km/h (2 Bft) 98,08 %
29.03.2023 03:34 5,4 C 5,0 C 1,7 C 90 % 1017,3 hPa 0,0 l/m 0 min 0 min 0 W/m 16,1 km/h (3 Bft) 97,83 %
29.03.2023 03:36 5,4 C 5,0 C 1,7 C 90 % 1017,2 hPa 0,0 l/m 0 min 0 min 0 W/m 12,9 km/h (3 Bft) 95,74 %
29.03.2023 03:38 5,4 C 5,0 C 1,7 C 90 % 1017,2 hPa 0,0 l/m 0 min 0 min 0 W/m 12,9 km/h (3 Bft) 97,87 %
29.03.2023 03:40 5,4 C 5,0 C 1,7 C 90 % 1017,2 hPa 0,0 l/m 0 min 0 min 0 W/m 12,9 km/h (3 Bft) 95,74 %
29.03.2023 03:42 5,4 C 5,0 C 1,7 C 90 % 1017,2 hPa 0,0 l/m 0 min 0 min 0 W/m 22,5 km/h (4 Bft) 95,74 %
29.03.2023 03:44 5,4 C 5,0 C 1,7 C 90 % 1017,3 hPa 0,0 l/m 0 min 0 min 0 W/m 6,4 km/h (2 Bft) 52,27 %
29.03.2023 03:46 5,4 C 5,0 C 1,7 C 90 % 1017,3 hPa 0,0 l/m 0 min 0 min 0 W/m 12,9 km/h (3 Bft) 95,74 %
29.03.2023 03:48 5,4 C 5,0 C 1,7 C 90 % 1017,2 hPa 0,0 l/m 0 min 0 min 0 W/m 9,7 km/h (2 Bft) 97,83 %
29.03.2023 03:50 5,4 C 5,0 C 1,7 C 90 % 1017,2 hPa 0,0 l/m 0 min 0 min 0 W/m 16,1 km/h (3 Bft) 97,87 %
29.03.2023 03:52 5,5 C 5,0 C 1,7 C 90 % 1017,2 hPa 0,0 l/m 0 min 0 min 0 W/m 16,1 km/h (3 Bft) 97,87 %
29.03.2023 03:54 5,5 C 5,0 C 1,7 C 90 % 1017,1 hPa 0,0 l/m 0 min 0 min 0 W/m 12,9 km/h (3 Bft) 97,87 %
29.03.2023 03:56 5,5 C 5,0 C 1,7 C 90 % 1017,1 hPa 0,0 l/m 0 min 0 min 0 W/m 16,1 km/h (3 Bft) 97,87 %
29.03.2023 03:58 5,5 C 5,0 C 1,7 C 90 % 1017,1 hPa 0,0 l/m 0 min 0 min 0 W/m 12,9 km/h (3 Bft) 97,87 %
29.03.2023 04:00 5,5 C 5,0 C 1,7 C 90 % 1017,1 hPa 0,0 l/m 0 min 0 min 0 W/m 16,1 km/h (3 Bft) 97,87 %
29.03.2023 04:02 5,5 C 5,0 C 1,7 C 89 % 1017,1 hPa 0,0 l/m 0 min 0 min 0 W/m 6,4 km/h (2 Bft) 96,00 %
29.03.2023 04:07 5,5 C 5,0 C 1,7 C 89 % 1017,0 hPa 0,0 l/m 0 min 0 min 0 W/m 19,3 km/h (3 Bft) 100,00 %
29.03.2023 04:08 5,5 C 5,0 C 1,7 C 89 % 1017,0 hPa 0,0 l/m 0 min 0 min 0 W/m 12,9 km/h (3 Bft) 100,00 %
29.03.2023 04:10 5,6 C 5,0 C 1,7 C 89 % 1017,0 hPa 0,0 l/m 0 min 0 min 0 W/m 12,9 km/h (3 Bft) 95,74 %
29.03.2023 04:15 5,6 C 5,0 C 1,7 C 89 % 1017,0 hPa 0,0 l/m 0 min 0 min 0 W/m 16,1 km/h (3 Bft) 98,39 %
29.03.2023 04:16 5,6 C 5,0 C 1,7 C 89 % 1017,0 hPa 0,0 l/m 0 min 0 min 0 W/m 12,9 km/h (3 Bft) 91,30 %
29.03.2023 04:18 5,6 C 5,0 C 1,7 C 89 % 1017,0 hPa 0,0 l/m 0 min 0 min 0 W/m 12,9 km/h (3 Bft) 95,74 %
29.03.2023 04:20 5,6 C 5,0 C 1,7 C 89 % 1016,9 hPa 0,0 l/m 0 min 0 min 0 W/m 16,1 km/h (3 Bft) 97,87 %
29.03.2023 04:22 5,6 C 5,0 C 1,7 C 89 % 1016,9 hPa 0,0 l/m 0 min 0 min 0 W/m 16,1 km/h (3 Bft) 93,62 %
29.03.2023 04:24 5,6 C 5,0 C 1,7 C 89 % 1016,9 hPa 0,0 l/m 0 min 0 min 0 W/m 16,1 km/h (3 Bft) 97,87 %
29.03.2023 04:26 5,6 C 5,0 C 1,7 C 89 % 1016,9 hPa 0,0 l/m 0 min 0 min 0 W/m 16,1 km/h (3 Bft) 97,87 %
29.03.2023 04:28 5,6 C 5,0 C 1,7 C 89 % 1016,8 hPa 0,0 l/m 0 min 0 min 0 W/m 16,1 km/h (3 Bft) 97,87 %
29.03.2023 04:30 5,6 C 5,0 C 1,7 C 89 % 1016,8 hPa 0,0 l/m 0 min 0 min 0 W/m 16,1 km/h (3 Bft) 97,87 %
29.03.2023 04:32 5,6 C 5,0 C 1,7 C 89 % 1016,9 hPa 0,0 l/m 0 min 0 min 0 W/m 16,1 km/h (3 Bft) 95,65 %
29.03.2023 04:34 5,6 C 5,0 C 1,7 C 89 % 1016,9 hPa 0,0 l/m 0 min 0 min 0 W/m 12,9 km/h (3 Bft) 97,22 %
29.03.2023 04:36 5,6 C 5,0 C 1,7 C 89 % 1017,0 hPa 0,0 l/m 0 min 0 min 0 W/m 9,7 km/h (2 Bft) 97,83 %
29.03.2023 04:38 5,6 C 5,0 C 1,7 C 89 % 1016,9 hPa 0,0 l/m 0 min 0 min 0 W/m 12,9 km/h (3 Bft) 97,87 %
29.03.2023 04:40 5,6 C 5,0 C 1,7 C 89 % 1016,9 hPa 0,0 l/m 0 min 0 min 0 W/m 12,9 km/h (3 Bft) 97,87 %
29.03.2023 04:42 5,6 C 5,0 C 1,7 C 89 % 1016,9 hPa 0,0 l/m 0 min 0 min 0 W/m 16,1 km/h (3 Bft) 97,87 %
29.03.2023 04:44 5,6 C 5,0 C 1,7 C 89 % 1016,9 hPa 0,0 l/m 0 min 0 min 0 W/m 12,9 km/h (3 Bft) 98,18 %
29.03.2023 04:46 5,6 C 5,0 C 1,7 C 89 % 1016,9 hPa 0,0 l/m 0 min 0 min 0 W/m 16,1 km/h (3 Bft) 95,74 %
29.03.2023 04:48 5,6 C 5,0 C 1,7 C 89 % 1016,8 hPa 0,0 l/m 0 min 0 min 0 W/m 12,9 km/h (3 Bft) 100,00 %
29.03.2023 04:50 5,7 C 5,0 C 1,7 C 89 % 1016,9 hPa 0,0 l/m 0 min 0 min 0 W/m 6,4 km/h (2 Bft) 95,74 %
29.03.2023 04:52 5,7 C 5,0 C 1,7 C 89 % 1016,7 hPa 0,0 l/m 0 min 0 min 0 W/m 12,9 km/h (3 Bft) 100,00 %
29.03.2023 04:54 5,7 C 5,0 C 1,7 C 89 % 1016,7 hPa 0,0 l/m 0 min 0 min 0 W/m 12,9 km/h (3 Bft) 97,87 %
29.03.2023 04:56 5,7 C 5,0 C 1,7 C 89 % 1016,7 hPa 0,0 l/m 0 min 0 min 0 W/m 6,4 km/h (2 Bft) 95,65 %
29.03.2023 04:58 5,7 C 5,0 C 1,7 C 89 % 1016,7 hPa 0,0 l/m 0 min 0 min 0 W/m 6,4 km/h (2 Bft) 97,87 %
29.03.2023 05:00 5,7 C 5,0 C 1,7 C 89 % 1016,7 hPa 0,0 l/m 0 min 0 min 0 W/m 9,7 km/h (2 Bft) 97,87 %
29.03.2023 05:02 5,7 C 5,0 C 1,7 C 89 % 1016,6 hPa 0,0 l/m 0 min 0 min 0 W/m 6,4 km/h (2 Bft) 93,62 %
29.03.2023 05:04 5,7 C 5,6 C 1,7 C 89 % 1016,6 hPa 0,0 l/m 0 min 0 min 0 W/m 12,9 km/h (3 Bft) 97,87 %
29.03.2023 05:06 5,7 C 5,0 C 1,7 C 89 % 1016,6 hPa 0,0 l/m 0 min 0 min 0 W/m 12,9 km/h (3 Bft) 96,55 %
29.03.2023 05:08 5,7 C 5,0 C 1,7 C 89 % 1016,6 hPa 0,0 l/m 0 min 0 min 0 W/m 12,9 km/h (3 Bft) 97,22 %
29.03.2023 05:10 5,8 C 5,6 C 1,7 C 89 % 1016,6 hPa 0,0 l/m 0 min 0 min 0 W/m 6,4 km/h (2 Bft) 97,87 %
29.03.2023 05:12 5,8 C 5,6 C 1,7 C 89 % 1016,6 hPa 0,0 l/m 0 min 0 min 0 W/m 9,7 km/h (2 Bft) 97,87 %
29.03.2023 05:14 5,8 C 5,6 C 1,7 C 89 % 1016,6 hPa 0,0 l/m 0 min 0 min 0 W/m 6,4 km/h (2 Bft) 93,62 %
29.03.2023 05:16 5,8 C 5,6 C 1,7 C 89 % 1016,6 hPa 0,0 l/m 0 min 0 min 0 W/m 3,2 km/h (1 Bft) 97,87 %
29.03.2023 05:18 5,8 C 5,6 C 1,7 C 89 % 1016,6 hPa 0,0 l/m 0 min 0 min 0 W/m 6,4 km/h (2 Bft) 95,83 %
29.03.2023 05:20 5,8 C 5,6 C 1,7 C 89 % 1016,6 hPa 0,0 l/m 0 min 0 min 0 W/m 6,4 km/h (2 Bft) 95,74 %
29.03.2023 05:22 5,8 C 5,6 C 1,7 C 89 % 1016,6 hPa 0,0 l/m 0 min 0 min 0 W/m 3,2 km/h (1 Bft) 97,83 %
29.03.2023 05:24 5,8 C 5,6 C 1,7 C 89 % 1016,6 hPa 0,0 l/m 0 min 0 min 0 W/m 6,4 km/h (2 Bft) 95,74 %
29.03.2023 05:26 5,8 C 5,6 C 1,7 C 89 % 1016,6 hPa 0,0 l/m 0 min 0 min 0 W/m 6,4 km/h (2 Bft) 95,74 %
29.03.2023 05:28 5,8 C 5,6 C 1,7 C 89 % 1016,5 hPa 0,0 l/m 0 min 0 min 0 W/m 6,4 km/h (2 Bft) 97,96 %
29.03.2023 05:30 5,8 C 5,6 C 1,7 C 89 % 1016,5 hPa 0,0 l/m 0 min 0 min 0 W/m 9,7 km/h (2 Bft) 93,62 %
29.03.2023 05:32 5,8 C 5,6 C 1,7 C 89 % 1016,5 hPa 0,0 l/m 0 min 0 min 0 W/m 6,4 km/h (2 Bft) 97,87 %
29.03.2023 05:34 5,8 C 5,6 C 1,7 C 89 % 1016,6 hPa 0,0 l/m 0 min 0 min 0 W/m 3,2 km/h (1 Bft) 97,87 %
29.03.2023 05:36 5,9 C 5,6 C 2,2 C 89 % 1016,5 hPa 0,0 l/m 0 min 0 min 0 W/m 6,4 km/h (2 Bft) 95,74 %
29.03.2023 05:38 5,9 C 5,6 C 2,2 C 89 % 1016,5 hPa 0,0 l/m 0 min 0 min 0 W/m 3,2 km/h (1 Bft) 97,87 %
29.03.2023 05:40 5,9 C 5,6 C 2,2 C 89 % 1016,5 hPa 0,0 l/m 0 min 0 min 0 W/m 6,4 km/h (2 Bft) 95,65 %
29.03.2023 05:42 5,9 C 5,6 C 2,2 C 89 % 1016,5 hPa 0,0 l/m 0 min 0 min 0 W/m 9,7 km/h (2 Bft) 95,74 %
29.03.2023 05:44 5,9 C 5,6 C 2,2 C 89 % 1016,5 hPa 0,0 l/m 0 min 0 min 0 W/m 6,4 km/h (2 Bft) 97,87 %
29.03.2023 05:46 5,9 C 5,6 C 2,2 C 89 % 1016,4 hPa 0,0 l/m 0 min 0 min 0 W/m 3,2 km/h (1 Bft) 97,87 %
29.03.2023 05:48 5,9 C 5,6 C 2,2 C 89 % 1016,5 hPa 0,0 l/m 0 min 0 min 0 W/m 9,7 km/h (2 Bft) 97,87 %
29.03.2023 05:50 5,9 C 5,6 C 2,2 C 89 % 1016,4 hPa 0,0 l/m 0 min 0 min 0 W/m 6,4 km/h (2 Bft) 100,00 %
29.03.2023 05:52 6,0 C 5,6 C 2,2 C 89 % 1016,5 hPa 0,0 l/m 0 min 0 min 0 W/m 6,4 km/h (2 Bft) 100,00 %
29.03.2023 05:54 6,0 C 5,6 C 2,2 C 89 % 1016,5 hPa 0,0 l/m 0 min 0 min 0 W/m 3,2 km/h (1 Bft) 97,87 %
29.03.2023 05:56 6,0 C 5,6 C 2,2 C 89 % 1016,5 hPa 0,0 l/m 0 min 0 min 0 W/m 6,4 km/h (2 Bft) 95,74 %
29.03.2023 05:58 6,1 C 5,6 C 1,7 C 89 % 1016,5 hPa 0,0 l/m 0 min 0 min 0 W/m 12,9 km/h (3 Bft) 100,00 %
29.03.2023 06:00 6,1 C 5,6 C 1,7 C 89 % 1016,4 hPa 0,0 l/m 0 min 0 min 0 W/m 9,7 km/h (2 Bft) 100,00 %
29.03.2023 06:02 6,1 C 5,6 C 1,7 C 89 % 1016,4 hPa 0,0 l/m 0 min 0 min 0 W/m 6,4 km/h (2 Bft) 97,87 %
29.03.2023 06:04 6,1 C 5,6 C 1,7 C 89 % 1016,4 hPa 0,0 l/m 0 min 0 min 0 W/m 6,4 km/h (2 Bft) 91,49 %
29.03.2023 06:08 6,1 C 5,0 C 1,7 C 90 % 1016,3 hPa 0,0 l/m 0 min 0 min 0 W/m 6,4 km/h (2 Bft) 77,78 %
29.03.2023 06:10 6,1 C 5,0 C 1,7 C 90 % 1016,3 hPa 0,0 l/m 0 min 0 min 0 W/m 3,2 km/h (1 Bft) 95,74 %
29.03.2023 06:12 6,1 C 5,0 C 1,7 C 90 % 1016,2 hPa 0,0 l/m 0 min 0 min 0 W/m 6,4 km/h (2 Bft) 93,62 %
29.03.2023 06:14 6,1 C 5,0 C 1,7 C 90 % 1016,2 hPa 0,0 l/m 0 min 0 min 0 W/m 3,2 km/h (1 Bft) 95,74 %
29.03.2023 06:16 6,1 C 5,0 C 1,7 C 90 % 1016,2 hPa 0,0 l/m 0 min 0 min 0 W/m 6,4 km/h (2 Bft) 91,49 %
29.03.2023 06:18 6,1 C 5,0 C 1,7 C 90 % 1016,2 hPa 0,0 l/m 0 min 0 min 0 W/m 6,4 km/h (2 Bft) 93,48 %
29.03.2023 06:20 6,1 C 5,0 C 1,7 C 90 % 1016,2 hPa 0,0 l/m 0 min 0 min 0 W/m 6,4 km/h (2 Bft) 95,74 %
29.03.2023 06:22 6,1 C 5,0 C 1,7 C 90 % 1016,2 hPa 0,0 l/m 0 min 0 min 0 W/m 6,4 km/h (2 Bft) 95,74 %
29.03.2023 06:24 6,1 C 5,0 C 1,7 C 91 % 1016,1 hPa 0,0 l/m 0 min 0 min 0 W/m 3,2 km/h (1 Bft) 93,62 %
29.03.2023 06:26 6,1 C 5,0 C 1,7 C 91 % 1016,2 hPa 0,0 l/m 0 min 0 min 0 W/m 6,4 km/h (2 Bft) 95,74 %
29.03.2023 06:28 6,1 C 5,0 C 1,7 C 91 % 1016,2 hPa 0,0 l/m 0 min 0 min 0 W/m 12,9 km/h (3 Bft) 93,62 %
29.03.2023 06:30 6,1 C 5,0 C 1,7 C 91 % 1016,2 hPa 0,0 l/m 0 min 0 min 0 W/m 6,4 km/h (2 Bft) 95,74 %
29.03.2023 06:32 6,1 C 5,0 C 1,7 C 91 % 1016,2 hPa 0,0 l/m 0 min 0 min 0 W/m 6,4 km/h (2 Bft) 93,48 %
29.03.2023 06:34 6,1 C 5,0 C 1,7 C 91 % 1016,1 hPa 0,0 l/m 0 min 0 min 0 W/m 12,9 km/h (3 Bft) 97,87 %
29.03.2023 06:36 6,1 C 5,0 C 1,7 C 92 % 1016,2 hPa 0,0 l/m 0 min 0 min 0 W/m 6,4 km/h (2 Bft) 93,62 %
29.03.2023 06:38 6,1 C 5,0 C 1,7 C 92 % 1016,2 hPa 0,0 l/m 0 min 0 min 0 W/m 16,1 km/h (3 Bft) 95,74 %
29.03.2023 06:40 6,1 C 5,0 C 1,7 C 92 % 1016,2 hPa 0,0 l/m 0 min 0 min 0 W/m 6,4 km/h (2 Bft) 95,74 %
29.03.2023 06:42 6,1 C 5,0 C 1,7 C 92 % 1016,1 hPa 0,0 l/m 0 min 0 min 0 W/m 12,9 km/h (3 Bft) 97,87 %
29.03.2023 06:44 6,0 C 5,0 C 1,7 C 92 % 1016,1 hPa 0,0 l/m 0 min 0 min 0 W/m 12,9 km/h (3 Bft) 97,83 %
29.03.2023 06:46 6,0 C 5,0 C 1,7 C 92 % 1016,1 hPa 0,0 l/m 0 min 0 min 0 W/m 12,9 km/h (3 Bft) 97,87 %
29.03.2023 06:48 6,0 C 5,0 C 1,7 C 92 % 1016,1 hPa 0,0 l/m 0 min 0 min 0 W/m 12,9 km/h (3 Bft) 97,87 %
29.03.2023 06:50 6,0 C 5,0 C 1,7 C 92 % 1016,0 hPa 0,0 l/m 0 min 0 min 0 W/m 12,9 km/h (3 Bft) 100,00 %
29.03.2023 06:52 6,0 C 5,0 C 1,7 C 92 % 1016,0 hPa 0,0 l/m 0 min 0 min 0 W/m 12,9 km/h (3 Bft) 100,00 %
29.03.2023 06:54 6,0 C 5,0 C 1,7 C 92 % 1016,0 hPa 0,0 l/m 0 min 0 min 0 W/m 6,4 km/h (2 Bft) 100,00 %
29.03.2023 06:56 6,0 C 5,0 C 1,7 C 93 % 1016,1 hPa 0,0 l/m 0 min 0 min 0 W/m 6,4 km/h (2 Bft) 100,00 %
29.03.2023 06:58 6,0 C 5,0 C 1,7 C 93 % 1016,1 hPa 0,0 l/m 0 min 0 min 0 W/m 6,4 km/h (2 Bft) 100,00 %
29.03.2023 07:00 6,0 C 5,0 C 1,7 C 93 % 1016,0 hPa 0,2 l/m 0 min 0 min 0 W/m 12,9 km/h (3 Bft) 100,00 %
29.03.2023 07:02 6,0 C 5,0 C 1,7 C 93 % 1016,0 hPa 0,0 l/m 0 min 0 min 0 W/m 12,9 km/h (3 Bft) 100,00 %
29.03.2023 07:04 6,0 C 5,0 C 1,7 C 93 % 1016,0 hPa 0,0 l/m 0 min 0 min 0 W/m 12,9 km/h (3 Bft) 100,00 %
29.03.2023 07:06 6,0 C 5,6 C 1,7 C 93 % 1016,0 hPa 0,0 l/m 0 min 0 min 0 W/m 12,9 km/h (3 Bft) 100,00 %
29.03.2023 07:08 6,0 C 5,6 C 1,7 C 93 % 1015,9 hPa 0,0 l/m 0 min 0 min 0 W/m 9,7 km/h (2 Bft) 97,56 %
29.03.2023 07:10 6,0 C 5,6 C 1,7 C 93 % 1015,9 hPa 0,0 l/m 0 min 0 min 0 W/m 12,9 km/h (3 Bft) 100,00 %
29.03.2023 07:12 6,0 C 5,6 C 1,7 C 93 % 1015,9 hPa 0,0 l/m 0 min 0 min 0 W/m 6,4 km/h (2 Bft) 100,00 %
29.03.2023 07:14 6,0 C 5,6 C 1,7 C 93 % 1015,9 hPa 0,0 l/m 0 min 0 min 0 W/m 6,4 km/h (2 Bft) 100,00 %
29.03.2023 07:16 6,0 C 5,6 C 1,7 C 93 % 1015,9 hPa 0,0 l/m 0 min 0 min 0 W/m 12,9 km/h (3 Bft) 97,87 %
29.03.2023 07:18 6,0 C 5,6 C 1,7 C 93 % 1015,9 hPa 0,0 l/m 0 min 0 min 0 W/m 6,4 km/h (2 Bft) 100,00 %
29.03.2023 07:20 6,0 C 5,6 C 1,7 C 93 % 1015,9 hPa 0,0 l/m 0 min 0 min 0 W/m 6,4 km/h (2 Bft) 100,00 %
29.03.2023 07:22 6,0 C 5,6 C 1,7 C 93 % 1015,9 hPa 0,0 l/m 0 min 0 min 0 W/m 12,9 km/h (3 Bft) 97,87 %
29.03.2023 07:24 6,0 C 5,6 C 1,7 C 93 % 1015,9 hPa 0,0 l/m 0 min 0 min 0 W/m 12,9 km/h (3 Bft) 97,87 %
29.03.2023 07:26 6,0 C 5,6 C 1,7 C 93 % 1015,9 hPa 0,0 l/m 0 min 0 min 0 W/m 16,1 km/h (3 Bft) 100,00 %
29.03.2023 07:28 6,0 C 5,6 C 2,2 C 93 % 1015,9 hPa 0,0 l/m 0 min 0 min 0 W/m 12,9 km/h (3 Bft) 100,00 %
29.03.2023 07:30 6,0 C 5,6 C 2,2 C 93 % 1015,8 hPa 0,0 l/m 0 min 0 min 3 W/m 9,7 km/h (2 Bft) 100,00 %
29.03.2023 07:32 6,0 C 5,6 C 2,2 C 94 % 1015,9 hPa 0,0 l/m 0 min 0 min 5 W/m 16,1 km/h (3 Bft) 100,00 %
29.03.2023 07:34 6,0 C 5,6 C 2,2 C 94 % 1015,8 hPa 0,0 l/m 0 min 0 min 7 W/m 16,1 km/h (3 Bft) 97,87 %
29.03.2023 07:36 6,0 C 5,6 C 2,2 C 94 % 1015,8 hPa 0,0 l/m 0 min 0 min 5 W/m 12,9 km/h (3 Bft) 95,74 %
29.03.2023 07:38 6,0 C 5,6 C 2,2 C 94 % 1015,7 hPa 0,0 l/m 0 min 0 min 7 W/m 12,9 km/h (3 Bft) 100,00 %
29.03.2023 07:40 6,0 C 5,6 C 2,2 C 93 % 1015,7 hPa 0,0 l/m 0 min 0 min 9 W/m 16,1 km/h (3 Bft) 100,00 %
29.03.2023 07:42 6,0 C 5,6 C 2,2 C 93 % 1015,7 hPa 0,0 l/m 0 min 0 min 8 W/m 9,7 km/h (2 Bft) 100,00 %
29.03.2023 07:44 6,0 C 5,6 C 2,2 C 93 % 1015,7 hPa 0,0 l/m 0 min 0 min 10 W/m 12,9 km/h (3 Bft) 100,00 %
29.03.2023 07:46 6,0 C 5,6 C 2,2 C 93 % 1015,6 hPa 0,0 l/m 0 min 0 min 11 W/m 16,1 km/h (3 Bft) 97,87 %
29.03.2023 07:48 6,1 C 5,6 C 2,2 C 93 % 1015,6 hPa 0,0 l/m 0 min 0 min 12 W/m 16,1 km/h (3 Bft) 100,00 %
29.03.2023 07:50 6,1 C 5,6 C 2,2 C 93 % 1015,6 hPa 0,0 l/m 0 min 0 min 14 W/m 16,1 km/h (3 Bft) 100,00 %
29.03.2023 07:52 6,1 C 5,6 C 2,2 C 93 % 1015,6 hPa 0,0 l/m 0 min 0 min 16 W/m 16,1 km/h (3 Bft) 97,87 %
29.03.2023 07:54 6,1 C 5,6 C 2,2 C 93 % 1015,7 hPa 0,0 l/m 0 min 0 min 16 W/m 12,9 km/h (3 Bft) 100,00 %
29.03.2023 07:56 6,1 C 5,6 C 2,2 C 93 % 1015,7 hPa 0,0 l/m 0 min 0 min 16 W/m 12,9 km/h (3 Bft) 97,87 %
29.03.2023 07:58 6,1 C 5,6 C 2,2 C 93 % 1015,7 hPa 0,0 l/m 0 min 0 min 16 W/m 16,1 km/h (3 Bft) 97,87 %
29.03.2023 08:00 6,1 C 6,1 C 2,2 C 93 % 1015,8 hPa 0,0 l/m 0 min 0 min 20 W/m 16,1 km/h (3 Bft) 95,74 %
29.03.2023 08:02 6,1 C 6,1 C 2,2 C 93 % 1015,8 hPa 0,0 l/m 0 min 0 min 19 W/m 16,1 km/h (3 Bft) 93,62 %
29.03.2023 08:04 6,1 C 6,1 C 2,2 C 93 % 1015,9 hPa 0,0 l/m 0 min 0 min 17 W/m 6,4 km/h (2 Bft) 95,74 %
29.03.2023 08:06 6,1 C 6,1 C 2,2 C 93 % 1015,8 hPa 0,0 l/m 0 min 0 min 20 W/m 9,7 km/h (2 Bft) 93,62 %
29.03.2023 08:08 6,1 C 6,1 C 2,2 C 93 % 1015,8 hPa 0,0 l/m 0 min 0 min 25 W/m 12,9 km/h (3 Bft) 95,65 %
29.03.2023 08:10 6,2 C 6,1 C 2,2 C 93 % 1015,8 hPa 0,0 l/m 0 min 0 min 25 W/m 9,7 km/h (2 Bft) 91,49 %
29.03.2023 08:12 6,2 C 6,1 C 2,2 C 93 % 1015,8 hPa 0,0 l/m 0 min 0 min 20 W/m 6,4 km/h (2 Bft) 93,62 %
29.03.2023 08:14 6,2 C 6,1 C 2,2 C 92 % 1015,8 hPa 0,0 l/m 0 min 0 min 20 W/m 12,9 km/h (3 Bft) 95,74 %
29.03.2023 08:16 6,2 C 6,1 C 2,2 C 92 % 1015,7 hPa 0,0 l/m 0 min 0 min 19 W/m 12,9 km/h (3 Bft) 93,62 %
29.03.2023 08:18 6,2 C 6,1 C 2,2 C 92 % 1015,8 hPa 0,0 l/m 0 min 0 min 21 W/m 6,4 km/h (2 Bft) 95,74 %
29.03.2023 08:20 6,2 C 6,1 C 2,8 C 92 % 1015,8 hPa 0,0 l/m 0 min 0 min 24 W/m 6,4 km/h (2 Bft) 89,36 %
29.03.2023 08:22 6,3 C 6,1 C 2,8 C 92 % 1015,8 hPa 0,0 l/m 0 min 0 min 26 W/m 6,4 km/h (2 Bft) 86,96 %
29.03.2023 08:24 6,3 C 6,1 C 2,8 C 92 % 1015,8 hPa 0,0 l/m 0 min 0 min 26 W/m 6,4 km/h (2 Bft) 91,49 %
29.03.2023 08:26 6,3 C 6,1 C 2,8 C 92 % 1015,8 hPa 0,0 l/m 0 min 0 min 26 W/m 12,9 km/h (3 Bft) 80,85 %
29.03.2023 08:28 6,3 C 6,1 C 2,8 C 92 % 1015,8 hPa 0,0 l/m 0 min 0 min 25 W/m 6,4 km/h (2 Bft) 85,11 %
29.03.2023 08:30 6,3 C 6,1 C 2,8 C 92 % 1015,8 hPa 0,0 l/m 0 min 0 min 23 W/m 6,4 km/h (2 Bft) 85,11 %
29.03.2023 08:32 6,3 C 6,1 C 2,8 C 92 % 1015,8 hPa 0,0 l/m 0 min 0 min 23 W/m 12,9 km/h (3 Bft) 91,49 %
29.03.2023 08:34 6,4 C 6,1 C 2,8 C 92 % 1015,8 hPa 0,0 l/m 0 min 0 min 26 W/m 6,4 km/h (2 Bft) 95,74 %
29.03.2023 08:36 6,4 C 6,1 C 2,8 C 92 % 1015,8 hPa 0,0 l/m 0 min 0 min 26 W/m 16,1 km/h (3 Bft) 95,65 %
29.03.2023 08:38 6,4 C 6,1 C 2,8 C 92 % 1015,8 hPa 0,0 l/m 0 min 0 min 25 W/m 12,9 km/h (3 Bft) 95,74 %
29.03.2023 08:40 6,4 C 6,1 C 2,8 C 91 % 1015,8 hPa 0,0 l/m 0 min 0 min 27 W/m 16,1 km/h (3 Bft) 91,49 %
29.03.2023 08:42 6,5 C 6,1 C 2,8 C 91 % 1015,8 hPa 0,0 l/m 0 min 0 min 29 W/m 12,9 km/h (3 Bft) 97,87 %
29.03.2023 08:44 6,5 C 6,1 C 2,8 C 91 % 1015,8 hPa 0,0 l/m 0 min 0 min 28 W/m 16,1 km/h (3 Bft) 95,74 %
29.03.2023 08:46 6,5 C 6,1 C 2,8 C 91 % 1015,9 hPa 0,0 l/m 0 min 0 min 28 W/m 12,9 km/h (3 Bft) 91,49 %
29.03.2023 08:48 6,5 C 6,1 C 2,8 C 91 % 1015,8 hPa 0,0 l/m 0 min 0 min 28 W/m 9,7 km/h (2 Bft) 95,74 %
29.03.2023 08:50 6,6 C 6,1 C 2,8 C 91 % 1015,8 hPa 0,0 l/m 0 min 0 min 32 W/m 6,4 km/h (2 Bft) 93,48 %
29.03.2023 08:52 6,6 C 6,7 C 2,8 C 91 % 1015,9 hPa 0,0 l/m 0 min 0 min 36 W/m 6,4 km/h (2 Bft) 95,74 %
29.03.2023 08:54 6,6 C 6,7 C 2,8 C 91 % 1015,9 hPa 0,0 l/m 0 min 0 min 35 W/m 9,7 km/h (2 Bft) 95,74 %
29.03.2023 08:56 6,6 C 6,7 C 2,8 C 91 % 1015,8 hPa 0,0 l/m 0 min 0 min 31 W/m 9,7 km/h (2 Bft) 97,87 %
29.03.2023 08:58 6,6 C 6,7 C 2,8 C 91 % 1015,9 hPa 0,0 l/m 0 min 0 min 31 W/m 6,4 km/h (2 Bft) 97,87 %
29.03.2023 09:00 6,7 C 6,7 C 2,8 C 91 % 1015,9 hPa 0,0 l/m 0 min 0 min 29 W/m 16,1 km/h (3 Bft) 97,87 %
29.03.2023 09:02 6,7 C 6,7 C 2,8 C 91 % 1015,9 hPa 0,0 l/m 0 min 0 min 28 W/m 12,9 km/h (3 Bft) 93,62 %
29.03.2023 09:04 6,7 C 6,7 C 2,8 C 91 % 1015,9 hPa 0,0 l/m 0 min 0 min 37 W/m 12,9 km/h (3 Bft) 97,83 %
29.03.2023 09:06 6,8 C 6,7 C 2,8 C 91 % 1016,0 hPa 0,0 l/m 0 min 0 min 39 W/m 12,9 km/h (3 Bft) 91,49 %
29.03.2023 09:08 6,8 C 6,7 C 2,8 C 91 % 1015,9 hPa 0,0 l/m 0 min 0 min 38 W/m 12,9 km/h (3 Bft) 97,87 %
29.03.2023 09:10 6,8 C 6,7 C 2,8 C 90 % 1015,9 hPa 0,0 l/m 0 min 0 min 39 W/m 16,1 km/h (3 Bft) 100,00 %
29.03.2023 09:12 6,8 C 6,7 C 2,8 C 90 % 1016,0 hPa 0,0 l/m 0 min 0 min 34 W/m 12,9 km/h (3 Bft) 100,00 %
29.03.2023 09:14 6,8 C 6,7 C 2,8 C 90 % 1016,0 hPa 0,0 l/m 0 min 0 min 36 W/m 6,4 km/h (2 Bft) 100,00 %
29.03.2023 09:16 6,9 C 6,7 C 2,8 C 90 % 1016,1 hPa 0,0 l/m 0 min 0 min 37 W/m 12,9 km/h (3 Bft) 100,00 %
29.03.2023 09:18 6,9 C 6,7 C 2,8 C 90 % 1016,0 hPa 0,0 l/m 0 min 0 min 35 W/m 6,4 km/h (2 Bft) 100,00 %
29.03.2023 09:20 6,9 C 6,7 C 2,8 C 90 % 1016,0 hPa 0,0 l/m 0 min 0 min 33 W/m 12,9 km/h (3 Bft) 100,00 %
29.03.2023 09:22 6,9 C 6,7 C 2,8 C 90 % 1016,0 hPa 0,0 l/m 0 min 0 min 33 W/m 12,9 km/h (3 Bft) 100,00 %
29.03.2023 09:24 6,9 C 6,7 C 3,3 C 90 % 1016,0 hPa 0,0 l/m 0 min 0 min 34 W/m 6,4 km/h (2 Bft) 100,00 %
29.03.2023 09:26 7,0 C 6,7 C 3,3 C 90 % 1016,0 hPa 0,0 l/m 0 min 0 min 36 W/m 12,9 km/h (3 Bft) 100,00 %
29.03.2023 09:28 7,0 C 6,7 C 3,3 C 90 % 1016,0 hPa 0,0 l/m 0 min 0 min 43 W/m 12,9 km/h (3 Bft) 100,00 %
29.03.2023 09:30 7,1 C 6,7 C 3,3 C 90 % 1016,0 hPa 0,0 l/m 0 min 0 min 45 W/m 6,4 km/h (2 Bft) 100,00 %
29.03.2023 09:32 7,1 C 6,7 C 3,3 C 90 % 1016,1 hPa 0,0 l/m 0 min 0 min 42 W/m 6,4 km/h (2 Bft) 100,00 %
29.03.2023 09:34 7,1 C 6,7 C 3,3 C 90 % 1016,1 hPa 0,0 l/m 0 min 0 min 42 W/m 12,9 km/h (3 Bft) 93,48 %
29.03.2023 09:36 7,1 C 6,7 C 3,3 C 90 % 1016,1 hPa 0,0 l/m 0 min 0 min 46 W/m 12,9 km/h (3 Bft) 97,87 %
29.03.2023 09:38 7,1 C 7,2 C 3,3 C 90 % 1016,0 hPa 0,0 l/m 0 min 0 min 65 W/m 12,9 km/h (3 Bft) 97,87 %
29.03.2023 09:40 7,1 C 7,2 C 3,3 C 90 % 1016,0 hPa 0,0 l/m 0 min 0 min 81 W/m 12,9 km/h (3 Bft) 100,00 %
29.03.2023 09:42 7,2 C 7,2 C 3,3 C 90 % 1016,0 hPa 0,0 l/m 0 min 0 min 95 W/m 12,9 km/h (3 Bft) 95,74 %
29.03.2023 09:44 7,2 C 7,2 C 3,3 C 90 % 1016,1 hPa 0,0 l/m 0 min 0 min 104 W/m 6,4 km/h (2 Bft) 97,87 %
29.03.2023 09:46 7,2 C 7,2 C 3,3 C 90 % 1016,0 hPa 0,0 l/m 0 min 0 min 107 W/m 6,4 km/h (2 Bft) 97,92 %
29.03.2023 09:48 7,3 C 7,8 C 3,9 C 90 % 1016,1 hPa 0,0 l/m 0 min 0 min 94 W/m 12,9 km/h (3 Bft) 100,00 %
29.03.2023 09:50 7,3 C 7,8 C 3,9 C 90 % 1016,1 hPa 0,0 l/m 0 min 0 min 93 W/m 12,9 km/h (3 Bft) 100,00 %
29.03.2023 09:52 7,4 C 7,8 C 3,9 C 90 % 1016,0 hPa 0,0 l/m 0 min 0 min 96 W/m 12,9 km/h (3 Bft) 97,37 %
29.03.2023 09:54 7,4 C 7,8 C 3,9 C 90 % 1015,9 hPa 0,0 l/m 0 min 0 min 102 W/m 6,4 km/h (2 Bft) 97,87 %
29.03.2023 09:56 7,5 C 7,8 C 3,9 C 90 % 1015,9 hPa 0,0 l/m 0 min 0 min 113 W/m 6,4 km/h (2 Bft) 100,00 %
29.03.2023 09:58 7,6 C 7,8 C 3,9 C 90 % 1016,0 hPa 0,0 l/m 0 min 0 min 115 W/m 6,4 km/h (2 Bft) 95,74 %
29.03.2023 10:00 7,6 C 7,8 C 3,9 C 90 % 1016,0 hPa 0,0 l/m 0 min 0 min 112 W/m 6,4 km/h (2 Bft) 97,87 %
29.03.2023 10:02 7,7 C 7,8 C 3,9 C 90 % 1016,1 hPa 0,0 l/m 0 min 0 min 111 W/m 6,4 km/h (2 Bft) 95,65 %
29.03.2023 10:04 7,7 C 8,3 C 4,4 C 90 % 1016,1 hPa 0,0 l/m 0 min 0 min 119 W/m 6,4 km/h (2 Bft) 97,87 %
29.03.2023 10:06 7,8 C 8,3 C 4,4 C 90 % 1016,0 hPa 0,0 l/m 0 min 0 min 128 W/m 12,9 km/h (3 Bft) 94,92 %
29.03.2023 10:08 7,8 C 8,3 C 4,4 C 90 % 1016,0 hPa 0,0 l/m 0 min 0 min 131 W/m 16,1 km/h (3 Bft) 97,14 %
29.03.2023 10:10 7,9 C 8,3 C 4,4 C 90 % 1016,0 hPa 0,0 l/m 0 min 0 min 133 W/m 3,2 km/h (1 Bft) 97,87 %
29.03.2023 10:12 7,9 C 8,3 C 4,4 C 90 % 1016,0 hPa 0,0 l/m 0 min 0 min 114 W/m 6,4 km/h (2 Bft) 97,87 %
29.03.2023 10:14 8,1 C 8,3 C 4,4 C 90 % 1016,1 hPa 0,0 l/m 0 min 0 min 96 W/m 12,9 km/h (3 Bft) 97,87 %
29.03.2023 10:16 8,1 C 8,3 C 4,4 C 90 % 1016,1 hPa 0,0 l/m 0 min 0 min 96 W/m 12,9 km/h (3 Bft) 97,83 %
29.03.2023 10:18 8,2 C 8,3 C 4,4 C 90 % 1016,2 hPa 0,0 l/m 0 min 0 min 91 W/m 12,9 km/h (3 Bft) 95,74 %
29.03.2023 10:20 8,2 C 8,3 C 4,4 C 90 % 1016,1 hPa 0,0 l/m 0 min 0 min 96 W/m 6,4 km/h (2 Bft) 97,87 %
29.03.2023 10:22 8,3 C 8,3 C 4,4 C 90 % 1016,2 hPa 0,0 l/m 0 min 0 min 99 W/m 16,1 km/h (3 Bft) 97,87 %
29.03.2023 10:24 8,3 C 8,3 C 4,4 C 90 % 1016,2 hPa 0,0 l/m 0 min 0 min 96 W/m 6,4 km/h (2 Bft) 97,87 %
29.03.2023 10:26 8,4 C 8,3 C 4,4 C 90 % 1016,2 hPa 0,0 l/m 0 min 0 min 85 W/m 12,9 km/h (3 Bft) 97,87 %
29.03.2023 10:28 8,4 C 8,3 C 4,4 C 90 % 1016,2 hPa 0,0 l/m 0 min 0 min 80 W/m 9,7 km/h (2 Bft) 97,83 %
29.03.2023 10:30 8,5 C 8,3 C 4,4 C 90 % 1016,2 hPa 0,0 l/m 0 min 0 min 87 W/m 9,7 km/h (2 Bft) 93,62 %
29.03.2023 10:32 8,5 C 8,3 C 4,4 C 90 % 1016,0 hPa 0,0 l/m 0 min 0 min 85 W/m 16,1 km/h (3 Bft) 95,74 %
29.03.2023 10:34 8,6 C 8,3 C 4,4 C 90 % 1016,0 hPa 0,0 l/m 0 min 0 min 83 W/m 16,1 km/h (3 Bft) 100,00 %
29.03.2023 10:36 8,6 C 8,3 C 4,4 C 90 % 1015,9 hPa 0,0 l/m 0 min 0 min 81 W/m 9,7 km/h (2 Bft) 100,00 %
29.03.2023 10:38 8,6 C 8,3 C 4,4 C 90 % 1015,9 hPa 0,0 l/m 0 min 0 min 101 W/m 6,4 km/h (2 Bft) 100,00 %
29.03.2023 10:40 8,6 C 8,3 C 4,4 C 90 % 1016,0 hPa 0,0 l/m 0 min 0 min 116 W/m 6,4 km/h (2 Bft) 100,00 %
29.03.2023 10:42 8,6 C 8,3 C 4,4 C 90 % 1015,9 hPa 0,0 l/m 0 min 0 min 103 W/m 12,9 km/h (3 Bft) 100,00 %
29.03.2023 10:44 8,7 C 8,3 C 4,4 C 90 % 1015,9 hPa 0,0 l/m 0 min 0 min 90 W/m 12,9 km/h (3 Bft) 97,87 %
29.03.2023 10:46 8,7 C 8,3 C 4,4 C 90 % 1015,9 hPa 0,0 l/m 0 min 0 min 74 W/m 16,1 km/h (3 Bft) 95,74 %
29.03.2023 10:48 8,7 C 8,3 C 4,4 C 90 % 1015,9 hPa 0,0 l/m 0 min 0 min 65 W/m 9,7 km/h (2 Bft) 97,83 %
29.03.2023 10:50 8,7 C 8,3 C 4,4 C 90 % 1015,9 hPa 0,0 l/m 0 min 0 min 62 W/m 12,9 km/h (3 Bft) 97,87 %
29.03.2023 10:52 8,7 C 8,3 C 4,4 C 90 % 1015,9 hPa 0,0 l/m 0 min 0 min 71 W/m 12,9 km/h (3 Bft) 97,87 %
29.03.2023 10:54 8,7 C 8,3 C 4,4 C 90 % 1015,9 hPa 0,0 l/m 0 min 0 min 92 W/m 12,9 km/h (3 Bft) 95,74 %
29.03.2023 10:56 8,7 C 8,3 C 4,4 C 90 % 1015,8 hPa 0,0 l/m 0 min 0 min 113 W/m 12,9 km/h (3 Bft) 97,87 %
29.03.2023 10:58 8,7 C 8,9 C 4,4 C 90 % 1015,9 hPa 0,0 l/m 0 min 0 min 145 W/m 6,4 km/h (2 Bft) 95,74 %
29.03.2023 11:00 8,7 C 8,9 C 5,0 C 90 % 1015,8 hPa 0,0 l/m 0 min 0 min 174 W/m 6,4 km/h (2 Bft) 95,74 %
29.03.2023 11:02 8,8 C 9,4 C 5,0 C 90 % 1015,9 hPa 0,0 l/m 0 min 0 min 176 W/m 3,2 km/h (1 Bft) 95,74 %
29.03.2023 11:04 8,8 C 9,4 C 5,0 C 90 % 1015,9 hPa 0,0 l/m 0 min 0 min 165 W/m 6,4 km/h (2 Bft) 97,62 %
29.03.2023 11:06 8,8 C 9,4 C 5,0 C 90 % 1016,0 hPa 0,0 l/m 0 min 0 min 186 W/m 6,4 km/h (2 Bft) 98,04 %
29.03.2023 11:08 8,9 C 10,0 C 5,6 C 90 % 1016,0 hPa 0,0 l/m 0 min 0 min 195 W/m 6,4 km/h (2 Bft) 95,74 %
29.03.2023 11:10 8,9 C 10,0 C 5,6 C 89 % 1016,0 hPa 0,0 l/m 0 min 0 min 180 W/m 9,7 km/h (2 Bft) 97,87 %
29.03.2023 11:12 9,0 C 10,0 C 5,6 C 89 % 1016,0 hPa 0,0 l/m 0 min 0 min 182 W/m 9,7 km/h (2 Bft) 95,74 %
29.03.2023 11:14 9,1 C 10,0 C 5,6 C 90 % 1016,0 hPa 0,0 l/m 0 min 0 min 186 W/m 6,4 km/h (2 Bft) 95,74 %
29.03.2023 11:16 9,2 C 10,0 C 5,6 C 89 % 1015,9 hPa 0,0 l/m 0 min 0 min 198 W/m 6,4 km/h (2 Bft) 95,74 %
29.03.2023 11:18 9,3 C 10,6 C 5,6 C 89 % 1016,0 hPa 0,0 l/m 0 min 0 min 217 W/m 6,4 km/h (2 Bft) 93,48 %
29.03.2023 11:20 9,3 C 10,6 C 6,1 C 89 % 1015,9 hPa 0,0 l/m 0 min 0 min 221 W/m 12,9 km/h (3 Bft) 93,62 %
29.03.2023 11:22 9,4 C 10,6 C 6,1 C 89 % 1015,9 hPa 0,0 l/m 0 min 0 min 219 W/m 6,4 km/h (2 Bft) 93,62 %
29.03.2023 11:24 9,5 C 10,6 C 6,1 C 89 % 1015,9 hPa 0,0 l/m 0 min 0 min 209 W/m 6,4 km/h (2 Bft) 95,74 %
29.03.2023 11:26 9,6 C 10,6 C 6,1 C 89 % 1015,8 hPa 0,0 l/m 0 min 0 min 191 W/m 12,9 km/h (3 Bft) 97,87 %
29.03.2023 11:28 9,7 C 10,6 C 6,1 C 88 % 1015,8 hPa 0,0 l/m 0 min 0 min 181 W/m 12,9 km/h (3 Bft) 93,62 %
29.03.2023 11:30 9,8 C 10,6 C 6,1 C 88 % 1015,8 hPa 0,0 l/m 0 min 0 min 185 W/m 12,9 km/h (3 Bft) 95,65 %
29.03.2023 11:32 9,8 C 10,6 C 6,1 C 88 % 1015,8 hPa 0,0 l/m 0 min 0 min 192 W/m 12,9 km/h (3 Bft) 97,87 %
29.03.2023 11:34 9,9 C 10,6 C 6,1 C 87 % 1015,8 hPa 0,0 l/m 0 min 0 min 182 W/m 16,1 km/h (3 Bft) 97,87 %
29.03.2023 11:36 10,1 C 10,6 C 6,7 C 87 % 1015,8 hPa 0,0 l/m 0 min 0 min 196 W/m 12,9 km/h (3 Bft) 97,87 %
29.03.2023 11:38 10,1 C 10,6 C 6,7 C 87 % 1015,8 hPa 0,0 l/m 0 min 0 min 196 W/m 16,1 km/h (3 Bft) 97,87 %
29.03.2023 11:40 10,1 C 10,6 C 6,7 C 86 % 1015,8 hPa 0,0 l/m 0 min 0 min 186 W/m 19,3 km/h (3 Bft) 97,87 %
29.03.2023 11:42 10,2 C 10,6 C 6,7 C 86 % 1015,8 hPa 0,0 l/m 0 min 0 min 199 W/m 12,9 km/h (3 Bft) 97,87 %
29.03.2023 11:44 10,3 C 11,1 C 6,7 C 86 % 1015,8 hPa 0,0 l/m 0 min 0 min 216 W/m 9,7 km/h (2 Bft) 97,83 %
29.03.2023 11:46 10,3 C 11,1 C 6,7 C 86 % 1015,7 hPa 0,0 l/m 0 min 0 min 231 W/m 12,9 km/h (3 Bft) 97,87 %
29.03.2023 11:48 10,4 C 11,1 C 6,7 C 86 % 1015,7 hPa 0,0 l/m 0 min 0 min 251 W/m 16,1 km/h (3 Bft) 97,87 %
29.03.2023 11:50 10,5 C 11,7 C 7,2 C 86 % 1015,7 hPa 0,0 l/m 0 min 0 min 250 W/m 12,9 km/h (3 Bft) 97,87 %
29.03.2023 11:52 10,6 C 11,7 C 7,2 C 85 % 1015,7 hPa 0,0 l/m 0 min 0 min 285 W/m 19,3 km/h (3 Bft) 97,87 %
29.03.2023 11:54 10,7 C 11,7 C 7,2 C 85 % 1015,7 hPa 0,0 l/m 0 min 0 min 270 W/m 12,9 km/h (3 Bft) 97,87 %
29.03.2023 11:56 10,8 C 12,2 C 7,2 C 85 % 1015,7 hPa 0,0 l/m 0 min 0 min 273 W/m 12,9 km/h (3 Bft) 95,74 %
29.03.2023 11:58 10,8 C 12,2 C 7,8 C 85 % 1015,7 hPa 0,0 l/m 0 min 0 min 299 W/m 9,7 km/h (2 Bft) 97,83 %
29.03.2023 12:00 10,9 C 12,8 C 7,8 C 85 % 1015,7 hPa 0,0 l/m 2 min 0 min 326 W/m 12,9 km/h (3 Bft) 95,74 %
29.03.2023 12:02 11,1 C 12,8 C 7,8 C 85 % 1015,7 hPa 0,0 l/m 2 min 0 min 354 W/m 6,4 km/h (2 Bft) 97,87 %
29.03.2023 12:04 11,1 C 13,3 C 8,3 C 85 % 1015,6 hPa 0,0 l/m 2 min 0 min 381 W/m 6,4 km/h (2 Bft) 97,87 %
29.03.2023 12:07 11,3 C 13,9 C 8,9 C 84 % 1015,5 hPa 0,0 l/m 3 min 0 min 394 W/m 12,9 km/h (3 Bft) 95,71 %
29.03.2023 12:08 11,3 C 13,9 C 8,9 C 84 % 1015,5 hPa 0,0 l/m 1 min 0 min 439 W/m 9,7 km/h (2 Bft) 95,83 %
29.03.2023 12:12 11,6 C 15,6 C 10,0 C 84 % 1015,6 hPa 0,0 l/m 4 min 0 min 519 W/m 12,9 km/h (3 Bft) 96,49 %
29.03.2023 12:14 11,8 C 15,6 C 10,0 C 84 % 1015,7 hPa 0,0 l/m 2 min 0 min 595 W/m 12,9 km/h (3 Bft) 97,87 %
29.03.2023 12:16 11,9 C 15,0 C 10,0 C 83 % 1015,7 hPa 0,0 l/m 2 min 0 min 363 W/m 9,7 km/h (2 Bft) 95,74 %
29.03.2023 12:18 12,1 C 14,4 C 10,0 C 83 % 1015,6 hPa 0,0 l/m 0 min 0 min 296 W/m 22,5 km/h (4 Bft) 97,83 %
29.03.2023 12:20 12,2 C 13,9 C 9,4 C 81 % 1015,6 hPa 0,0 l/m 2 min 0 min 347 W/m 22,5 km/h (4 Bft) 97,87 %
29.03.2023 12:22 12,2 C 13,3 C 9,4 C 81 % 1015,6 hPa 0,0 l/m 0 min 0 min 223 W/m 22,5 km/h (4 Bft) 93,62 %
29.03.2023 12:24 12,3 C 13,3 C 8,9 C 80 % 1015,6 hPa 0,0 l/m 0 min 0 min 232 W/m 19,3 km/h (3 Bft) 97,87 %
29.03.2023 12:26 12,3 C 13,3 C 8,9 C 79 % 1015,5 hPa 0,0 l/m 0 min 0 min 258 W/m 22,5 km/h (4 Bft) 95,74 %
29.03.2023 12:28 12,3 C 13,9 C 8,9 C 79 % 1015,5 hPa 0,0 l/m 0 min 0 min 302 W/m 16,1 km/h (3 Bft) 97,87 %
29.03.2023 12:30 12,4 C 13,9 C 9,4 C 79 % 1015,5 hPa 0,0 l/m 2 min 0 min 334 W/m 16,1 km/h (3 Bft) 97,87 %
29.03.2023 12:32 12,5 C 14,4 C 10,0 C 79 % 1015,5 hPa 0,0 l/m 2 min 0 min 434 W/m 22,5 km/h (4 Bft) 97,83 %
29.03.2023 12:34 12,6 C 14,4 C 10,0 C 79 % 1015,5 hPa 0,0 l/m 2 min 0 min 362 W/m 19,3 km/h (3 Bft) 97,87 %
29.03.2023 12:36 12,6 C 13,9 C 9,4 C 77 % 1015,5 hPa 0,0 l/m 2 min 0 min 331 W/m 25,7 km/h (4 Bft) 97,87 %
29.03.2023 12:38 12,6 C 13,9 C 9,4 C 77 % 1015,5 hPa 0,0 l/m 2 min 0 min 338 W/m 16,1 km/h (3 Bft) 97,87 %
29.03.2023 12:40 12,7 C 15,0 C 10,0 C 77 % 1015,5 hPa 0,0 l/m 2 min 0 min 358 W/m 16,1 km/h (3 Bft) 95,74 %
29.03.2023 12:42 12,8 C 17,2 C 11,1 C 77 % 1015,4 hPa 0,0 l/m 2 min 0 min 359 W/m 9,7 km/h (2 Bft) 95,74 %
29.03.2023 12:44 13,1 C 18,9 C 11,7 C 78 % 1015,4 hPa 0,0 l/m 2 min 0 min 719 W/m 6,4 km/h (2 Bft) 97,83 %
29.03.2023 12:46 13,3 C 18,9 C 12,2 C 77 % 1015,4 hPa 0,0 l/m 2 min 0 min 681 W/m 16,1 km/h (3 Bft) 100,00 %
29.03.2023 12:48 13,4 C 17,2 C 11,7 C 76 % 1015,3 hPa 0,0 l/m 2 min 0 min 606 W/m 25,7 km/h (4 Bft) 100,00 %
29.03.2023 12:50 13,5 C 17,2 C 11,7 C 75 % 1015,3 hPa 0,0 l/m 2 min 0 min 522 W/m 25,7 km/h (4 Bft) 97,87 %
29.03.2023 12:52 13,5 C 16,7 C 11,7 C 75 % 1015,3 hPa 0,0 l/m 2 min 0 min 495 W/m 22,5 km/h (4 Bft) 97,87 %
29.03.2023 12:54 13,6 C 16,7 C 11,7 C 75 % 1015,4 hPa 0,0 l/m 2 min 0 min 465 W/m 16,1 km/h (3 Bft) 100,00 %
29.03.2023 12:56 13,7 C 16,1 C 11,1 C 75 % 1015,3 hPa 0,0 l/m 2 min 0 min 444 W/m 19,3 km/h (3 Bft) 100,00 %
29.03.2023 12:58 13,8 C 15,6 C 11,1 C 74 % 1015,3 hPa 0,0 l/m 2 min 0 min 428 W/m 25,7 km/h (4 Bft) 100,00 %
29.03.2023 13:00 13,9 C 15,6 C 11,1 C 75 % 1015,3 hPa 0,0 l/m 2 min 0 min 372 W/m 22,5 km/h (4 Bft) 100,00 %
29.03.2023 13:02 13,9 C 15,0 C 10,6 C 75 % 1015,3 hPa 0,0 l/m 2 min 0 min 368 W/m 38,6 km/h (5 Bft) 100,00 %
29.03.2023 13:04 13,9 C 14,4 C 10,6 C 74 % 1015,3 hPa 0,0 l/m 0 min 0 min 316 W/m 22,5 km/h (4 Bft) 95,74 %
29.03.2023 13:06 13,9 C 14,4 C 10,6 C 74 % 1015,3 hPa 0,0 l/m 0 min 0 min 306 W/m 32,2 km/h (5 Bft) 100,00 %
29.03.2023 13:08 13,8 C 14,4 C 10,0 C 74 % 1015,3 hPa 0,0 l/m 0 min 0 min 315 W/m 25,7 km/h (4 Bft) 100,00 %
29.03.2023 13:10 13,8 C 13,9 C 10,0 C 74 % 1015,2 hPa 0,0 l/m 0 min 0 min 326 W/m 38,6 km/h (5 Bft) 97,87 %
29.03.2023 13:12 13,7 C 13,9 C 10,0 C 74 % 1015,2 hPa 0,0 l/m 2 min 0 min 357 W/m 22,5 km/h (4 Bft) 95,65 %
29.03.2023 13:14 13,8 C 14,4 C 10,0 C 74 % 1015,2 hPa 0,0 l/m 2 min 0 min 388 W/m 25,7 km/h (4 Bft) 95,74 %
29.03.2023 13:16 13,8 C 14,4 C 10,0 C 74 % 1015,2 hPa 0,0 l/m 2 min 0 min 348 W/m 29,0 km/h (5 Bft) 97,87 %
29.03.2023 13:18 13,8 C 14,4 C 10,0 C 74 % 1015,2 hPa 0,0 l/m 0 min 0 min 282 W/m 16,1 km/h (3 Bft) 97,87 %
29.03.2023 13:20 13,8 C 13,9 C 10,0 C 74 % 1015,2 hPa 0,0 l/m 0 min 0 min 250 W/m 22,5 km/h (4 Bft) 95,74 %
29.03.2023 13:22 13,8 C 13,9 C 10,0 C 75 % 1015,2 hPa 0,0 l/m 0 min 0 min 256 W/m 16,1 km/h (3 Bft) 97,87 %
29.03.2023 13:24 13,7 C 13,9 C 10,0 C 75 % 1015,3 hPa 0,0 l/m 0 min 0 min 255 W/m 22,5 km/h (4 Bft) 97,87 %
29.03.2023 13:26 13,7 C 13,9 C 10,0 C 75 % 1015,2 hPa 0,0 l/m 0 min 0 min 302 W/m 25,7 km/h (4 Bft) 97,87 %
29.03.2023 13:28 13,7 C 13,9 C 10,0 C 75 % 1015,3 hPa 0,0 l/m 0 min 0 min 315 W/m 22,5 km/h (4 Bft) 93,48 %
29.03.2023 13:30 13,7 C 13,9 C 10,0 C 75 % 1015,1 hPa 0,0 l/m 0 min 0 min 258 W/m 25,7 km/h (4 Bft) 97,87 %
29.03.2023 13:32 13,6 C 13,9 C 9,4 C 75 % 1015,1 hPa 0,0 l/m 0 min 0 min 186 W/m 22,5 km/h (4 Bft) 97,87 %
29.03.2023 13:34 13,6 C 13,3 C 9,4 C 76 % 1015,1 hPa 0,0 l/m 0 min 0 min 163 W/m 16,1 km/h (3 Bft) 97,87 %
29.03.2023 13:36 13,6 C 13,3 C 9,4 C 76 % 1015,1 hPa 0,0 l/m 0 min 0 min 213 W/m 22,5 km/h (4 Bft) 97,87 %
29.03.2023 13:38 13,6 C 13,9 C 9,4 C 76 % 1015,0 hPa 0,0 l/m 0 min 0 min 245 W/m 22,5 km/h (4 Bft) 95,74 %
29.03.2023 13:40 13,6 C 13,9 C 9,4 C 76 % 1015,0 hPa 0,0 l/m 0 min 0 min 269 W/m 22,5 km/h (4 Bft) 95,92 %
29.03.2023 13:42 13,6 C 13,9 C 9,4 C 76 % 1015,1 hPa 0,0 l/m 0 min 0 min 321 W/m 22,5 km/h (4 Bft) 97,87 %
29.03.2023 13:44 13,6 C 14,4 C 10,0 C 76 % 1015,0 hPa 0,0 l/m 2 min 0 min 331 W/m 25,7 km/h (4 Bft) 95,74 %
29.03.2023 13:46 13,7 C 14,4 C 10,0 C 76 % 1015,0 hPa 0,0 l/m 0 min 0 min 323 W/m 22,5 km/h (4 Bft) 97,87 %
29.03.2023 13:48 13,7 C 14,4 C 10,0 C 76 % 1015,0 hPa 0,0 l/m 0 min 0 min 307 W/m 19,3 km/h (3 Bft) 97,87 %
29.03.2023 13:50 13,8 C 14,4 C 10,0 C 76 % 1014,9 hPa 0,0 l/m 0 min 0 min 322 W/m 19,3 km/h (3 Bft) 97,83 %
29.03.2023 13:52 13,8 C 15,0 C 10,0 C 76 % 1015,0 hPa 0,0 l/m 2 min 0 min 371 W/m 25,7 km/h (4 Bft) 95,74 %
29.03.2023 13:54 13,8 C 15,6 C 10,6 C 76 % 1015,0 hPa 0,0 l/m 2 min 0 min 393 W/m 25,7 km/h (4 Bft) 100,00 %
29.03.2023 13:56 13,9 C 15,0 C 10,6 C 76 % 1014,9 hPa 0,0 l/m 2 min 0 min 345 W/m 19,3 km/h (3 Bft) 100,00 %
29.03.2023 13:58 14,0 C 15,6 C 10,6 C 76 % 1014,9 hPa 0,0 l/m 2 min 0 min 357 W/m 19,3 km/h (3 Bft) 95,74 %
29.03.2023 14:00 14,1 C 15,0 C 10,6 C 76 % 1014,9 hPa 0,0 l/m 2 min 0 min 356 W/m 22,5 km/h (4 Bft) 100,00 %
29.03.2023 14:02 14,1 C 15,0 C 10,6 C 76 % 1014,9 hPa 0,0 l/m 0 min 0 min 324 W/m 19,3 km/h (3 Bft) 97,87 %
29.03.2023 14:04 14,1 C 15,0 C 10,6 C 76 % 1014,9 hPa 0,0 l/m 0 min 0 min 310 W/m 41,8 km/h (6 Bft) 100,00 %
29.03.2023 14:06 14,1 C 14,4 C 10,6 C 76 % 1014,9 hPa 0,0 l/m 0 min 0 min 266 W/m 32,2 km/h (5 Bft) 100,00 %
29.03.2023 14:08 14,1 C 14,4 C 10,6 C 76 % 1014,8 hPa 0,0 l/m 0 min 0 min 270 W/m 16,1 km/h (3 Bft) 97,83 %
29.03.2023 14:10 14,1 C 14,4 C 10,0 C 76 % 1014,8 hPa 0,0 l/m 0 min 0 min 294 W/m 16,1 km/h (3 Bft) 100,00 %
29.03.2023 14:12 14,1 C 14,4 C 10,0 C 76 % 1014,8 hPa 0,0 l/m 0 min 0 min 299 W/m 19,3 km/h (3 Bft) 100,00 %
29.03.2023 14:14 14,1 C 15,0 C 10,6 C 76 % 1014,7 hPa 0,0 l/m 0 min 0 min 296 W/m 9,7 km/h (2 Bft) 100,00 %
29.03.2023 14:16 14,2 C 15,0 C 10,6 C 77 % 1014,7 hPa 0,0 l/m 2 min 0 min 341 W/m 19,3 km/h (3 Bft) 100,00 %
29.03.2023 14:18 14,3 C 15,6 C 10,6 C 76 % 1014,7 hPa 0,0 l/m 2 min 0 min 400 W/m 22,5 km/h (4 Bft) 95,74 %
29.03.2023 14:20 14,3 C 15,6 C 10,6 C 76 % 1014,8 hPa 0,0 l/m 2 min 0 min 431 W/m 25,7 km/h (4 Bft) 97,87 %
29.03.2023 14:22 14,3 C 16,1 C 11,1 C 76 % 1014,8 hPa 0,0 l/m 2 min 0 min 417 W/m 19,3 km/h (3 Bft) 97,87 %
29.03.2023 14:24 14,3 C 15,6 C 10,6 C 76 % 1014,7 hPa 0,0 l/m 2 min 0 min 442 W/m 25,7 km/h (4 Bft) 97,83 %
29.03.2023 14:26 14,4 C 15,6 C 11,1 C 76 % 1014,7 hPa 0,0 l/m 2 min 0 min 387 W/m 12,9 km/h (3 Bft) 95,74 %
29.03.2023 14:28 14,4 C 16,1 C 11,1 C 76 % 1014,7 hPa 0,0 l/m 2 min 0 min 368 W/m 12,9 km/h (3 Bft) 95,74 %
29.03.2023 14:30 14,6 C 15,6 C 11,1 C 76 % 1014,7 hPa 0,0 l/m 2 min 0 min 345 W/m 16,1 km/h (3 Bft) 97,87 %
29.03.2023 14:32 14,6 C 15,6 C 11,1 C 76 % 1014,7 hPa 0,0 l/m 2 min 0 min 326 W/m 25,7 km/h (4 Bft) 93,62 %
29.03.2023 14:34 14,6 C 15,0 C 10,6 C 75 % 1014,7 hPa 0,0 l/m 2 min 0 min 327 W/m 32,2 km/h (5 Bft) 97,87 %
29.03.2023 14:36 14,6 C 15,0 C 10,6 C 76 % 1014,6 hPa 0,0 l/m 0 min 0 min 313 W/m 35,4 km/h (5 Bft) 97,87 %
29.03.2023 14:38 14,6 C 15,0 C 10,6 C 75 % 1014,6 hPa 0,0 l/m 0 min 0 min 284 W/m 25,7 km/h (4 Bft) 95,65 %
29.03.2023 14:40 14,6 C 15,0 C 10,6 C 75 % 1014,6 hPa 0,0 l/m 0 min 0 min 313 W/m 25,7 km/h (4 Bft) 95,74 %
29.03.2023 14:42 14,6 C 15,6 C 10,6 C 75 % 1014,7 hPa 0,0 l/m 2 min 0 min 389 W/m 16,1 km/h (3 Bft) 97,87 %
29.03.2023 14:44 14,6 C 15,6 C 10,6 C 75 % 1014,6 hPa 0,0 l/m 2 min 0 min 350 W/m 29,0 km/h (5 Bft) 93,62 %
29.03.2023 14:46 14,6 C 15,0 C 10,6 C 75 % 1014,7 hPa 0,0 l/m 0 min 0 min 304 W/m 29,0 km/h (5 Bft) 97,87 %
29.03.2023 14:48 14,7 C 15,6 C 11,1 C 75 % 1014,6 hPa 0,0 l/m 2 min 0 min 371 W/m 22,5 km/h (4 Bft) 97,87 %
29.03.2023 14:50 14,7 C 15,6 C 11,1 C 75 % 1014,6 hPa 0,0 l/m 0 min 0 min 314 W/m 25,7 km/h (4 Bft) 95,65 %
29.03.2023 14:52 14,7 C 15,6 C 11,1 C 75 % 1014,6 hPa 0,0 l/m 2 min 0 min 320 W/m 22,5 km/h (4 Bft) 97,87 %
29.03.2023 14:54 14,8 C 16,1 C 11,1 C 75 % 1014,5 hPa 0,0 l/m 2 min 0 min 355 W/m 6,4 km/h (2 Bft) 97,87 %
29.03.2023 14:56 14,9 C 16,1 C 11,1 C 75 % 1014,5 hPa 0,0 l/m 0 min 0 min 286 W/m 22,5 km/h (4 Bft) 100,00 %
29.03.2023 14:58 14,9 C 15,6 C 11,1 C 75 % 1014,6 hPa 0,0 l/m 0 min 0 min 219 W/m 16,1 km/h (3 Bft) 97,87 %
29.03.2023 15:00 14,9 C 15,0 C 11,1 C 75 % 1014,6 hPa 0,0 l/m 0 min 0 min 170 W/m 19,3 km/h (3 Bft) 97,87 %
29.03.2023 15:02 14,8 C 15,0 C 10,6 C 75 % 1014,6 hPa 0,0 l/m 0 min 0 min 189 W/m 29,0 km/h (5 Bft) 97,87 %
29.03.2023 15:04 14,8 C 15,0 C 10,6 C 75 % 1014,5 hPa 0,0 l/m 0 min 0 min 215 W/m 12,9 km/h (3 Bft) 100,00 %
29.03.2023 15:06 14,8 C 15,0 C 10,6 C 75 % 1014,5 hPa 0,0 l/m 0 min 0 min 243 W/m 19,3 km/h (3 Bft) 100,00 %
29.03.2023 15:08 14,8 C 15,0 C 10,6 C 75 % 1014,4 hPa 0,0 l/m 0 min 0 min 229 W/m 19,3 km/h (3 Bft) 97,87 %
29.03.2023 15:10 14,8 C 15,0 C 10,6 C 75 % 1014,4 hPa 0,0 l/m 0 min 0 min 222 W/m 29,0 km/h (5 Bft) 97,87 %
29.03.2023 15:12 14,7 C 14,4 C 10,6 C 75 % 1014,4 hPa 0,0 l/m 0 min 0 min 181 W/m 32,2 km/h (5 Bft) 97,87 %
29.03.2023 15:14 14,7 C 14,4 C 10,6 C 75 % 1014,3 hPa 0,0 l/m 0 min 0 min 126 W/m 29,0 km/h (5 Bft) 95,74 %
29.03.2023 15:16 14,7 C 14,4 C 10,6 C 76 % 1014,4 hPa 0,0 l/m 0 min 0 min 109 W/m 19,3 km/h (3 Bft) 95,74 %
29.03.2023 15:18 14,7 C 14,4 C 10,6 C 75 % 1014,4 hPa 0,0 l/m 0 min 0 min 128 W/m 35,4 km/h (5 Bft) 95,74 %
29.03.2023 15:20 14,7 C 14,4 C 10,6 C 75 % 1014,3 hPa 0,0 l/m 0 min 0 min 188 W/m 32,2 km/h (5 Bft) 97,83 %
29.03.2023 15:22 14,7 C 15,0 C 10,6 C 76 % 1014,3 hPa 0,0 l/m 0 min 0 min 261 W/m 22,5 km/h (4 Bft) 95,74 %
29.03.2023 15:24 14,7 C 15,0 C 10,6 C 75 % 1014,3 hPa 0,0 l/m 0 min 0 min 230 W/m 16,1 km/h (3 Bft) 97,87 %
29.03.2023 15:26 14,8 C 15,0 C 10,6 C 75 % 1014,2 hPa 0,0 l/m 0 min 0 min 192 W/m 32,2 km/h (5 Bft) 97,87 %
29.03.2023 15:28 14,8 C 15,0 C 10,6 C 75 % 1014,2 hPa 0,0 l/m 0 min 0 min 216 W/m 16,1 km/h (3 Bft) 97,87 %
29.03.2023 15:30 14,8 C 15,0 C 10,6 C 75 % 1014,2 hPa 0,0 l/m 0 min 0 min 207 W/m 12,9 km/h (3 Bft) 97,87 %
29.03.2023 15:32 14,9 C 15,0 C 10,6 C 75 % 1014,1 hPa 0,0 l/m 0 min 0 min 167 W/m 16,1 km/h (3 Bft) 97,87 %
29.03.2023 15:34 14,9 C 15,0 C 10,6 C 75 % 1014,1 hPa 0,0 l/m 0 min 0 min 162 W/m 22,5 km/h (4 Bft) 97,83 %
29.03.2023 15:36 14,9 C 15,0 C 10,6 C 75 % 1014,1 hPa 0,0 l/m 0 min 0 min 142 W/m 19,3 km/h (3 Bft) 97,87 %
29.03.2023 15:38 15,0 C 15,0 C 10,6 C 75 % 1014,1 hPa 0,0 l/m 0 min 0 min 142 W/m 19,3 km/h (3 Bft) 95,74 %
29.03.2023 15:40 15,0 C 15,0 C 10,6 C 75 % 1014,1 hPa 0,0 l/m 0 min 0 min 174 W/m 12,9 km/h (3 Bft) 95,74 %
29.03.2023 15:42 15,1 C 15,6 C 10,6 C 75 % 1014,1 hPa 0,0 l/m 0 min 0 min 211 W/m 22,5 km/h (4 Bft) 95,74 %
29.03.2023 15:44 15,1 C 15,0 C 11,1 C 74 % 1014,0 hPa 0,0 l/m 0 min 0 min 237 W/m 22,5 km/h (4 Bft) 93,62 %
29.03.2023 15:46 15,1 C 15,6 C 11,1 C 75 % 1013,9 hPa 0,0 l/m 0 min 0 min 234 W/m 6,4 km/h (2 Bft) 95,74 %
29.03.2023 15:48 15,1 C 15,6 C 11,1 C 75 % 1013,9 hPa 0,0 l/m 0 min 0 min 231 W/m 12,9 km/h (3 Bft) 95,65 %
29.03.2023 15:50 15,2 C 15,6 C 11,1 C 74 % 1013,9 hPa 0,0 l/m 0 min 0 min 243 W/m 12,9 km/h (3 Bft) 93,62 %
29.03.2023 15:52 15,2 C 15,6 C 11,1 C 74 % 1013,9 hPa 0,0 l/m 0 min 0 min 253 W/m 29,0 km/h (5 Bft) 95,74 %
29.03.2023 15:54 15,2 C 15,6 C 11,1 C 74 % 1013,8 hPa 0,0 l/m 0 min 0 min 264 W/m 19,3 km/h (3 Bft) 93,62 %
29.03.2023 15:56 15,2 C 15,6 C 11,1 C 74 % 1013,8 hPa 0,0 l/m 0 min 0 min 260 W/m 16,1 km/h (3 Bft) 95,74 %
29.03.2023 15:58 15,2 C 15,6 C 11,1 C 74 % 1013,8 hPa 0,0 l/m 0 min 0 min 242 W/m 25,7 km/h (4 Bft) 95,74 %
29.03.2023 16:00 15,2 C 15,6 C 11,1 C 74 % 1013,7 hPa 0,0 l/m 0 min 0 min 223 W/m 16,1 km/h (3 Bft) 95,65 %
29.03.2023 16:02 15,2 C 15,6 C 11,1 C 74 % 1013,7 hPa 0,0 l/m 0 min 0 min 200 W/m 12,9 km/h (3 Bft) 95,74 %
29.03.2023 16:04 15,2 C 15,6 C 11,1 C 74 % 1013,7 hPa 0,0 l/m 0 min 0 min 180 W/m 16,1 km/h (3 Bft) 95,74 %
29.03.2023 16:06 15,2 C 15,0 C 11,1 C 74 % 1013,6 hPa 0,0 l/m 0 min 0 min 174 W/m 12,9 km/h (3 Bft) 95,74 %
29.03.2023 16:08 15,2 C 15,0 C 11,1 C 74 % 1013,6 hPa 0,0 l/m 0 min 0 min 172 W/m 6,4 km/h (2 Bft) 95,74 %
29.03.2023 16:10 15,3 C 15,0 C 11,1 C 74 % 1013,6 hPa 0,0 l/m 0 min 0 min 168 W/m 16,1 km/h (3 Bft) 95,74 %
29.03.2023 16:12 15,3 C 15,0 C 11,1 C 74 % 1013,6 hPa 0,0 l/m 0 min 0 min 163 W/m 12,9 km/h (3 Bft) 95,74 %
29.03.2023 16:14 15,3 C 15,0 C 11,1 C 74 % 1013,5 hPa 0,0 l/m 0 min 0 min 171 W/m 12,9 km/h (3 Bft) 97,83 %
29.03.2023 16:16 15,3 C 15,0 C 11,1 C 74 % 1013,5 hPa 0,0 l/m 0 min 0 min 185 W/m 19,3 km/h (3 Bft) 100,00 %
29.03.2023 16:18 15,3 C 15,6 C 11,1 C 74 % 1013,5 hPa 0,0 l/m 0 min 0 min 195 W/m 16,1 km/h (3 Bft) 97,87 %
29.03.2023 16:20 15,3 C 15,6 C 11,1 C 74 % 1013,5 hPa 0,0 l/m 0 min 0 min 192 W/m 12,9 km/h (3 Bft) 95,74 %
29.03.2023 16:22 15,3 C 15,6 C 11,1 C 74 % 1013,5 hPa 0,0 l/m 0 min 0 min 184 W/m 22,5 km/h (4 Bft) 97,87 %
29.03.2023 16:24 15,3 C 15,6 C 11,1 C 74 % 1013,5 hPa 0,0 l/m 0 min 0 min 184 W/m 16,1 km/h (3 Bft) 100,00 %
29.03.2023 16:26 15,3 C 15,6 C 11,1 C 73 % 1013,5 hPa 0,0 l/m 0 min 0 min 186 W/m 16,1 km/h (3 Bft) 100,00 %
29.03.2023 16:28 15,3 C 15,6 C 11,1 C 73 % 1013,4 hPa 0,0 l/m 0 min 0 min 184 W/m 12,9 km/h (3 Bft) 100,00 %
29.03.2023 16:30 15,3 C 15,6 C 11,1 C 74 % 1013,4 hPa 0,0 l/m 0 min 0 min 180 W/m 19,3 km/h (3 Bft) 95,74 %
29.03.2023 16:32 15,4 C 15,6 C 11,1 C 73 % 1013,4 hPa 0,0 l/m 0 min 0 min 176 W/m 16,1 km/h (3 Bft) 95,74 %
29.03.2023 16:34 15,4 C 15,6 C 11,1 C 73 % 1013,4 hPa 0,0 l/m 0 min 0 min 166 W/m 9,7 km/h (2 Bft) 97,87 %
29.03.2023 16:36 15,4 C 15,6 C 11,1 C 73 % 1013,4 hPa 0,0 l/m 0 min 0 min 161 W/m 12,9 km/h (3 Bft) 95,74 %
29.03.2023 16:38 15,4 C 15,6 C 11,1 C 73 % 1013,4 hPa 0,0 l/m 0 min 0 min 175 W/m 16,1 km/h (3 Bft) 97,87 %
29.03.2023 16:40 15,4 C 15,6 C 11,1 C 73 % 1013,3 hPa 0,0 l/m 0 min 0 min 205 W/m 12,9 km/h (3 Bft) 97,87 %
29.03.2023 16:42 15,4 C 15,6 C 11,1 C 73 % 1013,4 hPa 0,0 l/m 0 min 0 min 219 W/m 19,3 km/h (3 Bft) 97,83 %
29.03.2023 16:44 15,4 C 15,6 C 11,1 C 73 % 1013,3 hPa 0,0 l/m 0 min 0 min 223 W/m 12,9 km/h (3 Bft) 97,87 %
29.03.2023 16:46 15,5 C 16,1 C 11,1 C 73 % 1013,3 hPa 0,0 l/m 0 min 0 min 221 W/m 9,7 km/h (2 Bft) 97,87 %
29.03.2023 16:48 15,6 C 16,1 C 11,1 C 73 % 1013,3 hPa 0,0 l/m 0 min 0 min 217 W/m 12,9 km/h (3 Bft) 97,87 %
29.03.2023 16:50 15,6 C 16,1 C 11,1 C 73 % 1013,3 hPa 0,0 l/m 0 min 0 min 216 W/m 6,4 km/h (2 Bft) 97,87 %
29.03.2023 16:52 15,6 C 16,1 C 11,1 C 73 % 1013,3 hPa 0,0 l/m 0 min 0 min 217 W/m 12,9 km/h (3 Bft) 97,87 %
29.03.2023 16:54 15,6 C 16,1 C 11,1 C 73 % 1013,3 hPa 0,0 l/m 0 min 0 min 214 W/m 9,7 km/h (2 Bft) 97,87 %
29.03.2023 16:56 15,6 C 15,6 C 11,1 C 73 % 1013,3 hPa 0,0 l/m 0 min 0 min 205 W/m 12,9 km/h (3 Bft) 97,83 %
29.03.2023 16:58 15,7 C 15,6 C 11,1 C 73 % 1013,2 hPa 0,0 l/m 0 min 0 min 193 W/m 22,5 km/h (4 Bft) 95,74 %
29.03.2023 17:00 15,7 C 16,1 C 11,1 C 73 % 1013,2 hPa 0,0 l/m 0 min 0 min 186 W/m 16,1 km/h (3 Bft) 95,74 %
29.03.2023 17:02 15,7 C 16,1 C 11,1 C 73 % 1013,2 hPa 0,0 l/m 0 min 0 min 179 W/m 16,1 km/h (3 Bft) 93,62 %
29.03.2023 17:04 15,8 C 16,1 C 11,1 C 72 % 1013,1 hPa 0,0 l/m 0 min 0 min 175 W/m 19,3 km/h (3 Bft) 97,92 %
29.03.2023 17:06 15,8 C 16,1 C 11,1 C 73 % 1013,1 hPa 0,0 l/m 0 min 0 min 157 W/m 9,7 km/h (2 Bft) 100,00 %
29.03.2023 17:08 15,9 C 16,1 C 11,1 C 73 % 1013,0 hPa 0,0 l/m 0 min 0 min 139 W/m 12,9 km/h (3 Bft) 97,14 %
29.03.2023 17:10 15,9 C 16,1 C 11,1 C 72 % 1013,0 hPa 0,0 l/m 0 min 0 min 126 W/m 9,7 km/h (2 Bft) 100,00 %
29.03.2023 17:12 16,0 C 16,1 C 11,1 C 72 % 1012,9 hPa 0,0 l/m 0 min 0 min 127 W/m 9,7 km/h (2 Bft) 100,00 %
29.03.2023 17:14 16,1 C 16,1 C 11,1 C 72 % 1012,9 hPa 0,0 l/m 0 min 0 min 126 W/m 6,4 km/h (2 Bft) 100,00 %
29.03.2023 17:16 16,1 C 16,1 C 11,1 C 72 % 1012,9 hPa 0,0 l/m 0 min 0 min 121 W/m 6,4 km/h (2 Bft) 100,00 %
29.03.2023 17:18 16,1 C 16,1 C 11,1 C 72 % 1012,9 hPa 0,0 l/m 0 min 0 min 109 W/m 12,9 km/h (3 Bft) 100,00 %
29.03.2023 17:20 16,1 C 15,6 C 11,1 C 72 % 1012,8 hPa 0,0 l/m 0 min 0 min 97 W/m 6,4 km/h (2 Bft) 100,00 %
29.03.2023 17:22 16,1 C 15,6 C 11,1 C 72 % 1012,8 hPa 0,0 l/m 0 min 0 min 80 W/m 12,9 km/h (3 Bft) 100,00 %
29.03.2023 17:24 16,1 C 15,6 C 11,1 C 72 % 1012,8 hPa 0,0 l/m 0 min 0 min 67 W/m 9,7 km/h (2 Bft) 100,00 %
29.03.2023 17:26 16,1 C 15,6 C 11,1 C 72 % 1012,8 hPa 0,0 l/m 0 min 0 min 57 W/m 6,4 km/h (2 Bft) 97,87 %
29.03.2023 17:28 16,1 C 15,6 C 11,1 C 72 % 1012,8 hPa 0,0 l/m 0 min 0 min 51 W/m 12,9 km/h (3 Bft) 97,87 %
29.03.2023 17:30 16,1 C 15,0 C 11,1 C 72 % 1012,8 hPa 0,0 l/m 0 min 0 min 51 W/m 6,4 km/h (2 Bft) 100,00 %
29.03.2023 17:32 16,1 C 15,0 C 11,1 C 72 % 1012,7 hPa 0,0 l/m 0 min 0 min 55 W/m 9,7 km/h (2 Bft) 97,87 %
29.03.2023 17:34 16,1 C 15,0 C 11,1 C 73 % 1012,7 hPa 0,0 l/m 0 min 0 min 61 W/m 6,4 km/h (2 Bft) 100,00 %
29.03.2023 17:36 16,1 C 15,0 C 10,6 C 73 % 1012,7 hPa 0,0 l/m 0 min 0 min 61 W/m 9,7 km/h (2 Bft) 100,00 %
29.03.2023 17:38 16,1 C 15,0 C 10,6 C 73 % 1012,6 hPa 0,0 l/m 0 min 0 min 77 W/m 6,4 km/h (2 Bft) 100,00 %
29.03.2023 17:40 16,0 C 15,6 C 10,6 C 73 % 1012,6 hPa 0,0 l/m 0 min 0 min 102 W/m 12,9 km/h (3 Bft) 100,00 %
29.03.2023 17:42 16,0 C 15,6 C 11,1 C 73 % 1012,5 hPa 0,0 l/m 0 min 0 min 119 W/m 6,4 km/h (2 Bft) 100,00 %
29.03.2023 17:44 16,0 C 15,6 C 11,1 C 73 % 1012,4 hPa 0,0 l/m 0 min 0 min 133 W/m 6,4 km/h (2 Bft) 100,00 %
29.03.2023 17:46 16,0 C 15,6 C 11,1 C 73 % 1012,4 hPa 0,0 l/m 0 min 0 min 125 W/m 9,7 km/h (2 Bft) 100,00 %
29.03.2023 17:48 16,0 C 15,6 C 11,1 C 73 % 1012,4 hPa 0,0 l/m 0 min 0 min 99 W/m 9,7 km/h (2 Bft) 97,87 %
29.03.2023 17:50 16,0 C 15,6 C 11,1 C 73 % 1012,3 hPa 0,0 l/m 0 min 0 min 90 W/m 9,7 km/h (2 Bft) 100,00 %
29.03.2023 17:52 16,0 C 15,6 C 11,1 C 73 % 1012,3 hPa 0,0 l/m 0 min 0 min 97 W/m 9,7 km/h (2 Bft) 100,00 %
29.03.2023 17:54 16,0 C 15,6 C 11,1 C 73 % 1012,2 hPa 0,0 l/m 0 min 0 min 104 W/m 9,7 km/h (2 Bft) 100,00 %
29.03.2023 17:56 16,0 C 15,6 C 11,1 C 73 % 1012,2 hPa 0,0 l/m 0 min 0 min 99 W/m 12,9 km/h (3 Bft) 100,00 %
29.03.2023 17:58 16,0 C 15,6 C 11,1 C 74 % 1012,2 hPa 0,0 l/m 0 min 0 min 93 W/m 9,7 km/h (2 Bft) 100,00 %
29.03.2023 18:00 16,0 C 15,6 C 11,1 C 74 % 1012,2 hPa 0,0 l/m 0 min 0 min 104 W/m 6,4 km/h (2 Bft) 97,87 %
29.03.2023 18:02 16,0 C 15,6 C 11,1 C 74 % 1012,1 hPa 0,0 l/m 0 min 0 min 148 W/m 9,7 km/h (2 Bft) 100,00 %
29.03.2023 18:04 16,1 C 16,1 C 11,1 C 74 % 1012,1 hPa 0,0 l/m 2 min 0 min 147 W/m 6,4 km/h (2 Bft) 100,00 %
29.03.2023 18:07 16,1 C 16,1 C 11,1 C 74 % 1012,0 hPa 0,0 l/m 0 min 0 min 139 W/m 6,4 km/h (2 Bft) 100,00 %
29.03.2023 18:08 16,1 C 16,1 C 11,1 C 74 % 1012,0 hPa 0,0 l/m 0 min 0 min 126 W/m 6,4 km/h (2 Bft) 100,00 %
29.03.2023 18:12 16,1 C 15,6 C 11,1 C 74 % 1012,0 hPa 0,0 l/m 0 min 0 min 97 W/m 9,7 km/h (2 Bft) 98,31 %
29.03.2023 18:14 16,1 C 15,6 C 11,1 C 75 % 1011,9 hPa 0,0 l/m 0 min 0 min 87 W/m 12,9 km/h (3 Bft) 95,74 %
29.03.2023 18:16 16,1 C 15,6 C 11,1 C 75 % 1011,9 hPa 0,0 l/m 0 min 0 min 80 W/m 6,4 km/h (2 Bft) 93,88 %
29.03.2023 18:18 16,1 C 15,6 C 11,1 C 75 % 1011,9 hPa 0,0 l/m 0 min 0 min 72 W/m 12,9 km/h (3 Bft) 97,87 %
29.03.2023 18:20 16,1 C 15,6 C 11,1 C 74 % 1011,8 hPa 0,0 l/m 0 min 0 min 63 W/m 6,4 km/h (2 Bft) 95,65 %
29.03.2023 18:22 16,1 C 15,6 C 11,1 C 74 % 1011,8 hPa 0,0 l/m 0 min 0 min 60 W/m 9,7 km/h (2 Bft) 96,30 %
29.03.2023 18:24 16,1 C 15,6 C 11,1 C 74 % 1011,9 hPa 0,0 l/m 0 min 0 min 61 W/m 12,9 km/h (3 Bft) 95,74 %
29.03.2023 18:26 16,1 C 15,6 C 11,1 C 74 % 1011,9 hPa 0,0 l/m 0 min 0 min 68 W/m 6,4 km/h (2 Bft) 97,37 %
29.03.2023 18:28 16,0 C 15,0 C 11,1 C 74 % 1011,8 hPa 0,0 l/m 0 min 0 min 67 W/m 12,9 km/h (3 Bft) 95,74 %
29.03.2023 18:30 16,0 C 15,0 C 11,1 C 74 % 1011,8 hPa 0,0 l/m 0 min 0 min 62 W/m 12,9 km/h (3 Bft) 97,87 %
29.03.2023 18:32 16,0 C 15,0 C 10,6 C 74 % 1011,7 hPa 0,0 l/m 0 min 0 min 55 W/m 6,4 km/h (2 Bft) 93,62 %
29.03.2023 18:34 16,0 C 15,0 C 10,6 C 74 % 1011,6 hPa 0,0 l/m 0 min 0 min 53 W/m 6,4 km/h (2 Bft) 91,30 %
29.03.2023 18:36 15,9 C 15,0 C 10,6 C 75 % 1011,6 hPa 0,0 l/m 0 min 0 min 51 W/m 6,4 km/h (2 Bft) 91,84 %
29.03.2023 18:38 15,9 C 15,0 C 10,6 C 75 % 1011,7 hPa 0,0 l/m 0 min 0 min 43 W/m 6,4 km/h (2 Bft) 93,62 %
29.03.2023 18:40 15,9 C 15,0 C 10,6 C 75 % 1011,7 hPa 0,0 l/m 0 min 0 min 35 W/m 6,4 km/h (2 Bft) 96,30 %
29.03.2023 18:42 15,9 C 15,0 C 10,6 C 75 % 1011,6 hPa 0,0 l/m 0 min 0 min 38 W/m 16,1 km/h (3 Bft) 92,11 %
29.03.2023 18:44 15,9 C 15,0 C 10,6 C 75 % 1011,6 hPa 0,0 l/m 0 min 0 min 43 W/m 6,4 km/h (2 Bft) 91,84 %
29.03.2023 18:46 15,8 C 15,0 C 10,6 C 75 % 1011,6 hPa 0,0 l/m 0 min 0 min 40 W/m 6,4 km/h (2 Bft) 93,62 %
29.03.2023 18:48 15,8 C 15,0 C 10,6 C 75 % 1011,5 hPa 0,0 l/m 0 min 0 min 37 W/m 12,9 km/h (3 Bft) 93,48 %
29.03.2023 18:50 15,8 C 15,0 C 10,6 C 75 % 1011,5 hPa 0,0 l/m 0 min 0 min 40 W/m 12,9 km/h (3 Bft) 91,49 %
29.03.2023 18:52 15,8 C 15,0 C 10,6 C 75 % 1011,4 hPa 0,0 l/m 0 min 0 min 45 W/m 6,4 km/h (2 Bft) 93,62 %
29.03.2023 18:54 15,8 C 15,0 C 10,6 C 75 % 1011,3 hPa 0,0 l/m 0 min 0 min 50 W/m 6,4 km/h (2 Bft) 94,44 %
29.03.2023 18:56 15,7 C 15,0 C 10,6 C 76 % 1011,3 hPa 0,0 l/m 0 min 0 min 53 W/m 6,4 km/h (2 Bft) 93,62 %
29.03.2023 18:58 15,7 C 15,0 C 10,6 C 76 % 1011,4 hPa 0,0 l/m 0 min 0 min 48 W/m 6,4 km/h (2 Bft) 95,74 %
29.03.2023 19:00 15,7 C 15,0 C 10,6 C 76 % 1011,3 hPa 0,0 l/m 0 min 0 min 43 W/m 3,2 km/h (1 Bft) 95,65 %
29.03.2023 19:02 15,7 C 15,0 C 10,6 C 76 % 1011,3 hPa 0,0 l/m 0 min 0 min 41 W/m 12,9 km/h (3 Bft) 97,37 %
29.03.2023 19:04 15,7 C 15,0 C 10,6 C 76 % 1011,3 hPa 0,0 l/m 0 min 0 min 39 W/m 6,4 km/h (2 Bft) 89,36 %
29.03.2023 19:06 15,7 C 15,0 C 10,6 C 76 % 1011,3 hPa 0,0 l/m 0 min 0 min 36 W/m 6,4 km/h (2 Bft) 94,92 %
29.03.2023 19:08 15,7 C 14,4 C 10,6 C 76 % 1011,3 hPa 0,0 l/m 0 min 0 min 34 W/m 3,2 km/h (1 Bft) 97,30 %
29.03.2023 19:10 15,7 C 14,4 C 10,6 C 76 % 1011,4 hPa 0,0 l/m 0 min 0 min 31 W/m 12,9 km/h (3 Bft) 97,87 %
29.03.2023 19:12 15,6 C 14,4 C 10,6 C 76 % 1011,4 hPa 0,0 l/m 0 min 0 min 27 W/m 6,4 km/h (2 Bft) 95,74 %
29.03.2023 19:14 15,6 C 14,4 C 10,6 C 76 % 1011,4 hPa 0,0 l/m 0 min 0 min 24 W/m 6,4 km/h (2 Bft) 97,87 %
29.03.2023 19:16 15,6 C 14,4 C 10,6 C 76 % 1011,4 hPa 0,0 l/m 0 min 0 min 23 W/m 3,2 km/h (1 Bft) 97,83 %
29.03.2023 19:18 15,6 C 14,4 C 10,6 C 76 % 1011,3 hPa 0,0 l/m 0 min 0 min 23 W/m 9,7 km/h (2 Bft) 95,74 %
29.03.2023 19:20 15,5 C 14,4 C 10,0 C 76 % 1011,3 hPa 0,0 l/m 0 min 0 min 21 W/m 6,4 km/h (2 Bft) 95,74 %
29.03.2023 19:22 15,5 C 14,4 C 10,0 C 76 % 1011,3 hPa 0,0 l/m 0 min 0 min 21 W/m 6,4 km/h (2 Bft) 97,87 %
29.03.2023 19:24 15,4 C 14,4 C 10,0 C 76 % 1011,3 hPa 0,0 l/m 0 min 0 min 19 W/m 6,4 km/h (2 Bft) 97,87 %
29.03.2023 19:26 15,4 C 14,4 C 10,0 C 76 % 1011,3 hPa 0,0 l/m 0 min 0 min 18 W/m 6,4 km/h (2 Bft) 100,00 %
29.03.2023 19:28 15,4 C 14,4 C 10,0 C 76 % 1011,3 hPa 0,0 l/m 0 min 0 min 16 W/m 12,9 km/h (3 Bft) 100,00 %
29.03.2023 19:30 15,4 C 14,4 C 10,0 C 76 % 1011,3 hPa 0,0 l/m 0 min 0 min 14 W/m 6,4 km/h (2 Bft) 100,00 %
29.03.2023 19:32 15,3 C 14,4 C 10,0 C 76 % 1011,2 hPa 0,0 l/m 0 min 0 min 14 W/m 6,4 km/h (2 Bft) 97,87 %
29.03.2023 19:34 15,3 C 14,4 C 10,0 C 76 % 1011,2 hPa 0,0 l/m 0 min 0 min 13 W/m 9,7 km/h (2 Bft) 100,00 %
29.03.2023 19:36 15,3 C 14,4 C 10,0 C 76 % 1011,1 hPa 0,0 l/m 0 min 0 min 12 W/m 9,7 km/h (2 Bft) 95,74 %
29.03.2023 19:38 15,3 C 13,9 C 10,0 C 77 % 1011,1 hPa 0,0 l/m 0 min 0 min 11 W/m 6,4 km/h (2 Bft) 100,00 %
29.03.2023 19:40 15,2 C 13,9 C 10,0 C 77 % 1011,1 hPa 0,0 l/m 0 min 0 min 10 W/m 6,4 km/h (2 Bft) 100,00 %
29.03.2023 19:42 15,2 C 13,9 C 10,0 C 77 % 1011,1 hPa 0,0 l/m 0 min 0 min 9 W/m 3,2 km/h (1 Bft) 100,00 %
29.03.2023 19:44 15,2 C 13,9 C 10,0 C 77 % 1011,1 hPa 0,0 l/m 0 min 0 min 7 W/m 6,4 km/h (2 Bft) 100,00 %
29.03.2023 19:46 15,2 C 13,9 C 10,0 C 77 % 1011,1 hPa 0,0 l/m 0 min 0 min 7 W/m 6,4 km/h (2 Bft) 100,00 %
29.03.2023 19:48 15,2 C 13,9 C 10,0 C 77 % 1011,1 hPa 0,0 l/m 0 min 0 min 5 W/m 6,4 km/h (2 Bft) 100,00 %
29.03.2023 19:50 15,1 C 13,9 C 9,4 C 77 % 1011,1 hPa 0,0 l/m 0 min 0 min 5 W/m 6,4 km/h (2 Bft) 100,00 %
29.03.2023 19:52 15,1 C 13,9 C 9,4 C 77 % 1011,0 hPa 0,0 l/m 0 min 0 min 1 W/m 6,4 km/h (2 Bft) 100,00 %
29.03.2023 19:54 15,1 C 13,9 C 9,4 C 78 % 1011,0 hPa 0,0 l/m 0 min 0 min 0 W/m 12,9 km/h (3 Bft) 100,00 %
29.03.2023 19:56 15,1 C 13,9 C 9,4 C 78 % 1011,0 hPa 0,0 l/m 0 min 0 min 0 W/m 6,4 km/h (2 Bft) 97,83 %
29.03.2023 19:58 15,0 C 13,9 C 9,4 C 78 % 1011,0 hPa 0,0 l/m 0 min 0 min 0 W/m 9,7 km/h (2 Bft) 97,87 %
29.03.2023 20:00 14,9 C 13,9 C 9,4 C 78 % 1011,0 hPa 0,0 l/m 0 min 0 min 0 W/m 6,4 km/h (2 Bft) 95,74 %
29.03.2023 20:02 14,9 C 13,9 C 9,4 C 78 % 1011,1 hPa 0,0 l/m 0 min 0 min 0 W/m 9,7 km/h (2 Bft) 100,00 %
29.03.2023 20:04 14,9 C 13,9 C 9,4 C 78 % 1011,1 hPa 0,0 l/m 0 min 0 min 0 W/m 6,4 km/h (2 Bft) 100,00 %
29.03.2023 20:06 14,9 C 13,9 C 9,4 C 79 % 1011,0 hPa 0,0 l/m 0 min 0 min 0 W/m 6,4 km/h (2 Bft) 44,68 %
29.03.2023 20:08 14,8 C 13,9 C 9,4 C 79 % 1011,0 hPa 0,0 l/m 0 min 0 min 0 W/m 3,2 km/h (1 Bft) 100,00 %
29.03.2023 20:10 14,8 C 13,9 C 9,4 C 79 % 1011,0 hPa 0,0 l/m 0 min 0 min 0 W/m 6,4 km/h (2 Bft) 100,00 %
29.03.2023 20:12 14,8 C 13,9 C 9,4 C 79 % 1011,0 hPa 0,0 l/m 0 min 0 min 0 W/m 6,4 km/h (2 Bft) 100,00 %
29.03.2023 20:14 14,8 C 13,9 C 9,4 C 80 % 1010,9 hPa 0,0 l/m 0 min 0 min 0 W/m 9,7 km/h (2 Bft) 100,00 %
29.03.2023 20:16 14,8 C 13,9 C 9,4 C 80 % 1010,9 hPa 0,0 l/m 0 min 0 min 0 W/m 6,4 km/h (2 Bft) 95,74 %
29.03.2023 20:18 14,8 C 13,9 C 9,4 C 80 % 1010,9 hPa 0,0 l/m 0 min 0 min 0 W/m 6,4 km/h (2 Bft) 100,00 %
29.03.2023 20:20 14,7 C 13,3 C 9,4 C 80 % 1010,8 hPa 0,0 l/m 0 min 0 min 0 W/m 9,7 km/h (2 Bft) 97,87 %
29.03.2023 20:22 14,7 C 13,3 C 9,4 C 80 % 1010,8 hPa 0,0 l/m 0 min 0 min 0 W/m 6,4 km/h (2 Bft) 100,00 %
29.03.2023 20:24 14,7 C 13,3 C 9,4 C 80 % 1010,9 hPa 0,0 l/m 0 min 0 min 0 W/m 6,4 km/h (2 Bft) 100,00 %
29.03.2023 20:26 14,7 C 13,3 C 9,4 C 80 % 1010,9 hPa 0,0 l/m 0 min 0 min 0 W/m 9,7 km/h (2 Bft) 97,87 %
29.03.2023 20:28 14,6 C 13,3 C 9,4 C 80 % 1010,9 hPa 0,0 l/m 0 min 0 min 0 W/m 6,4 km/h (2 Bft) 100,00 %
29.03.2023 20:30 14,6 C 13,3 C 9,4 C 80 % 1010,8 hPa 0,0 l/m 0 min 0 min 0 W/m 6,4 km/h (2 Bft) 100,00 %
29.03.2023 20:32 14,6 C 13,3 C 9,4 C 80 % 1010,9 hPa 0,0 l/m 0 min 0 min 0 W/m 6,4 km/h (2 Bft) 97,87 %
29.03.2023 20:34 14,6 C 13,3 C 9,4 C 80 % 1010,9 hPa 0,0 l/m 0 min 0 min 0 W/m 12,9 km/h (3 Bft) 91,49 %
29.03.2023 20:36 14,6 C 13,3 C 9,4 C 80 % 1010,9 hPa 0,0 l/m 0 min 0 min 0 W/m 3,2 km/h (1 Bft) 97,83 %
29.03.2023 20:38 14,5 C 13,3 C 9,4 C 81 % 1010,9 hPa 0,0 l/m 0 min 0 min 0 W/m 12,9 km/h (3 Bft) 97,87 %
29.03.2023 20:40 14,5 C 13,3 C 9,4 C 81 % 1010,8 hPa 0,0 l/m 0 min 0 min 0 W/m 9,7 km/h (2 Bft) 95,74 %
29.03.2023 20:42 14,4 C 13,3 C 9,4 C 81 % 1010,8 hPa 0,0 l/m 0 min 0 min 0 W/m 6,4 km/h (2 Bft) 97,87 %
29.03.2023 20:44 14,4 C 13,3 C 9,4 C 81 % 1010,8 hPa 0,0 l/m 0 min 0 min 0 W/m 12,9 km/h (3 Bft) 97,87 %
29.03.2023 20:46 14,4 C 13,3 C 9,4 C 81 % 1010,8 hPa 0,0 l/m 0 min 0 min 0 W/m 6,4 km/h (2 Bft) 97,87 %
29.03.2023 20:48 14,4 C 13,3 C 9,4 C 82 % 1010,7 hPa 0,0 l/m 0 min 0 min 0 W/m 3,2 km/h (1 Bft) 97,87 %
29.03.2023 20:50 14,3 C 13,3 C 9,4 C 82 % 1010,7 hPa 0,0 l/m 0 min 0 min 0 W/m 6,4 km/h (2 Bft) 97,87 %
29.03.2023 20:52 14,3 C 13,3 C 9,4 C 82 % 1010,8 hPa 0,0 l/m 0 min 0 min 0 W/m 9,7 km/h (2 Bft) 97,83 %
29.03.2023 20:54 14,3 C 13,3 C 9,4 C 82 % 1010,8 hPa 0,0 l/m 0 min 0 min 0 W/m 16,1 km/h (3 Bft) 97,87 %
29.03.2023 20:56 14,3 C 13,3 C 9,4 C 82 % 1010,7 hPa 0,0 l/m 0 min 0 min 0 W/m 6,4 km/h (2 Bft) 97,92 %
29.03.2023 20:58 14,3 C 13,3 C 9,4 C 82 % 1010,7 hPa 0,0 l/m 0 min 0 min 0 W/m 6,4 km/h (2 Bft) 95,45 %
29.03.2023 21:00 14,3 C 13,3 C 9,4 C 82 % 1010,6 hPa 0,0 l/m 0 min 0 min 0 W/m 6,4 km/h (2 Bft) 76,60 %
29.03.2023 21:02 14,3 C 13,3 C 9,4 C 83 % 1010,6 hPa 0,0 l/m 0 min 0 min 0 W/m 6,4 km/h (2 Bft) 64,71 %
29.03.2023 21:04 14,3 C 13,3 C 9,4 C 83 % 1010,6 hPa 0,0 l/m 0 min 0 min 0 W/m 6,4 km/h (2 Bft) 97,96 %
29.03.2023 21:07 14,3 C 13,3 C 8,9 C 83 % 1010,6 hPa 0,0 l/m 0 min 0 min 0 W/m 6,4 km/h (2 Bft) 97,14 %
29.03.2023 21:08 14,3 C 13,3 C 8,9 C 83 % 1010,6 hPa 0,0 l/m 0 min 0 min 0 W/m 6,4 km/h (2 Bft) 91,30 %
29.03.2023 21:10 14,3 C 13,3 C 8,9 C 83 % 1010,6 hPa 0,0 l/m 0 min 0 min 0 W/m 6,4 km/h (2 Bft) 95,74 %
29.03.2023 21:12 14,3 C 13,3 C 8,9 C 83 % 1010,6 hPa 0,0 l/m 0 min 0 min 0 W/m 6,4 km/h (2 Bft) 95,74 %
29.03.2023 21:14 14,3 C 13,3 C 8,9 C 83 % 1010,5 hPa 0,0 l/m 0 min 0 min 0 W/m 6,4 km/h (2 Bft) 97,87 %
29.03.2023 21:16 14,3 C 13,3 C 8,9 C 84 % 1010,5 hPa 0,0 l/m 0 min 0 min 0 W/m 3,2 km/h (1 Bft) 97,87 %
29.03.2023 21:18 14,3 C 13,3 C 8,9 C 84 % 1010,5 hPa 0,0 l/m 0 min 0 min 0 W/m 6,4 km/h (2 Bft) 97,62 %
29.03.2023 21:20 14,3 C 12,8 C 8,9 C 84 % 1010,5 hPa 0,0 l/m 0 min 0 min 0 W/m 6,4 km/h (2 Bft) 93,62 %
29.03.2023 21:22 14,2 C 12,8 C 8,9 C 84 % 1010,5 hPa 0,0 l/m 0 min 0 min 0 W/m 6,4 km/h (2 Bft) 97,87 %
29.03.2023 21:24 14,2 C 12,8 C 8,9 C 84 % 1010,5 hPa 0,0 l/m 0 min 0 min 0 W/m 6,4 km/h (2 Bft) 97,83 %
29.03.2023 21:26 14,2 C 12,8 C 8,9 C 84 % 1010,5 hPa 0,0 l/m 0 min 0 min 0 W/m 6,4 km/h (2 Bft) 95,74 %
29.03.2023 21:28 14,1 C 12,8 C 8,9 C 84 % 1010,5 hPa 0,0 l/m 0 min 0 min 0 W/m 9,7 km/h (2 Bft) 92,31 %
29.03.2023 21:30 14,1 C 12,8 C 8,9 C 84 % 1010,4 hPa 0,0 l/m 0 min 0 min 0 W/m 6,4 km/h (2 Bft) 95,74 %
29.03.2023 21:32 14,1 C 12,8 C 8,9 C 84 % 1010,4 hPa 0,0 l/m 0 min 0 min 0 W/m 12,9 km/h (3 Bft) 93,62 %
29.03.2023 21:34 14,1 C 12,8 C 8,9 C 84 % 1010,4 hPa 0,0 l/m 0 min 0 min 0 W/m 6,4 km/h (2 Bft) 95,65 %
29.03.2023 21:36 14,0 C 12,8 C 8,9 C 84 % 1010,3 hPa 0,0 l/m 0 min 0 min 0 W/m 12,9 km/h (3 Bft) 93,62 %
29.03.2023 21:38 14,0 C 12,8 C 8,9 C 84 % 1010,3 hPa 0,0 l/m 0 min 0 min 0 W/m 6,4 km/h (2 Bft) 95,74 %
29.03.2023 21:40 14,0 C 12,8 C 8,9 C 84 % 1010,3 hPa 0,0 l/m 0 min 0 min 0 W/m 9,7 km/h (2 Bft) 95,74 %
29.03.2023 21:42 13,9 C 12,8 C 8,9 C 84 % 1010,2 hPa 0,0 l/m 0 min 0 min 0 W/m 9,7 km/h (2 Bft) 93,62 %
29.03.2023 21:44 13,9 C 12,8 C 8,9 C 84 % 1010,2 hPa 0,0 l/m 0 min 0 min 0 W/m 6,4 km/h (2 Bft) 95,74 %
29.03.2023 21:46 13,9 C 12,8 C 8,9 C 84 % 1010,2 hPa 0,0 l/m 0 min 0 min 0 W/m 6,4 km/h (2 Bft) 95,74 %
29.03.2023 21:48 13,9 C 12,8 C 8,9 C 84 % 1010,2 hPa 0,0 l/m 0 min 0 min 0 W/m 6,4 km/h (2 Bft) 97,83 %
29.03.2023 21:50 13,8 C 12,8 C 8,9 C 84 % 1010,2 hPa 0,0 l/m 0 min 0 min 0 W/m 6,4 km/h (2 Bft) 93,62 %
29.03.2023 21:52 13,8 C 12,8 C 8,9 C 84 % 1010,2 hPa 0,0 l/m 0 min 0 min 0 W/m 9,7 km/h (2 Bft) 97,87 %
29.03.2023 21:54 13,8 C 12,8 C 8,9 C 85 % 1010,2 hPa 0,0 l/m 0 min 0 min 0 W/m 3,2 km/h (1 Bft) 93,62 %
29.03.2023 21:56 13,8 C 12,8 C 8,9 C 85 % 1010,2 hPa 0,0 l/m 0 min 0 min 0 W/m 12,9 km/h (3 Bft) 97,62 %
29.03.2023 21:58 13,8 C 12,8 C 8,9 C 85 % 1010,1 hPa 0,0 l/m 0 min 0 min 0 W/m 6,4 km/h (2 Bft) 95,74 %
29.03.2023 22:00 13,7 C 12,8 C 8,9 C 85 % 1010,2 hPa 0,0 l/m 0 min 0 min 0 W/m 12,9 km/h (3 Bft) 97,87 %
29.03.2023 22:02 13,7 C 12,8 C 8,9 C 85 % 1010,1 hPa 0,0 l/m 0 min 0 min 0 W/m 12,9 km/h (3 Bft) 93,62 %
29.03.2023 22:04 13,7 C 12,8 C 8,9 C 85 % 1010,1 hPa 0,0 l/m 0 min 0 min 0 W/m 12,9 km/h (3 Bft) 97,87 %
29.03.2023 22:06 13,7 C 12,8 C 8,9 C 85 % 1010,1 hPa 0,0 l/m 0 min 0 min 0 W/m 6,4 km/h (2 Bft) 96,55 %
29.03.2023 22:08 13,7 C 12,8 C 8,9 C 85 % 1010,1 hPa 0,0 l/m 0 min 0 min 0 W/m 9,7 km/h (2 Bft) 94,29 %
29.03.2023 22:10 13,6 C 12,2 C 8,3 C 85 % 1010,0 hPa 0,0 l/m 0 min 0 min 0 W/m 6,4 km/h (2 Bft) 95,83 %
29.03.2023 22:12 13,6 C 12,2 C 8,3 C 85 % 1010,0 hPa 0,0 l/m 0 min 0 min 0 W/m 6,4 km/h (2 Bft) 93,62 %
29.03.2023 22:14 13,6 C 12,2 C 8,3 C 85 % 1010,0 hPa 0,0 l/m 0 min 0 min 0 W/m 6,4 km/h (2 Bft) 100,00 %
29.03.2023 22:16 13,6 C 12,2 C 8,3 C 85 % 1009,9 hPa 0,0 l/m 0 min 0 min 0 W/m 6,4 km/h (2 Bft) 100,00 %
29.03.2023 22:18 13,5 C 12,2 C 8,3 C 85 % 1010,0 hPa 0,0 l/m 0 min 0 min 0 W/m 6,4 km/h (2 Bft) 93,62 %
29.03.2023 22:20 13,4 C 12,2 C 8,3 C 85 % 1010,0 hPa 0,0 l/m 0 min 0 min 0 W/m 3,2 km/h (1 Bft) 100,00 %
29.03.2023 22:22 13,4 C 12,2 C 8,3 C 85 % 1010,0 hPa 0,0 l/m 0 min 0 min 0 W/m 6,4 km/h (2 Bft) 100,00 %
29.03.2023 22:24 13,4 C 12,2 C 8,3 C 85 % 1009,9 hPa 0,0 l/m 0 min 0 min 0 W/m 6,4 km/h (2 Bft) 95,74 %
29.03.2023 22:26 13,4 C 12,2 C 8,3 C 85 % 1009,9 hPa 0,0 l/m 0 min 0 min 0 W/m 3,2 km/h (1 Bft) 97,87 %
29.03.2023 22:28 13,4 C 12,2 C 8,3 C 85 % 1009,9 hPa 0,0 l/m 0 min 0 min 0 W/m 6,4 km/h (2 Bft) 97,87 %
29.03.2023 22:30 13,3 C 12,2 C 8,3 C 85 % 1009,9 hPa 0,0 l/m 0 min 0 min 0 W/m 6,4 km/h (2 Bft) 95,65 %
29.03.2023 22:32 13,3 C 12,2 C 8,3 C 85 % 1009,8 hPa 0,0 l/m 0 min 0 min 0 W/m 6,4 km/h (2 Bft) 95,74 %
29.03.2023 22:34 13,3 C 12,2 C 8,3 C 86 % 1009,8 hPa 0,0 l/m 0 min 0 min 0 W/m 6,4 km/h (2 Bft) 97,87 %
29.03.2023 22:36 13,2 C 12,2 C 8,3 C 86 % 1009,7 hPa 0,0 l/m 0 min 0 min 0 W/m 6,4 km/h (2 Bft) 93,62 %
29.03.2023 22:38 13,2 C 11,7 C 8,3 C 85 % 1009,7 hPa 0,0 l/m 0 min 0 min 0 W/m 6,4 km/h (2 Bft) 97,87 %
29.03.2023 22:40 13,2 C 11,7 C 8,3 C 85 % 1009,7 hPa 0,0 l/m 0 min 0 min 0 W/m 6,4 km/h (2 Bft) 97,87 %
29.03.2023 22:42 13,1 C 11,7 C 7,8 C 86 % 1009,7 hPa 0,0 l/m 0 min 0 min 0 W/m 3,2 km/h (1 Bft) 95,74 %
29.03.2023 22:44 13,1 C 11,7 C 7,8 C 86 % 1009,7 hPa 0,0 l/m 0 min 0 min 0 W/m 3,2 km/h (1 Bft) 97,83 %
29.03.2023 22:46 13,1 C 11,7 C 7,8 C 86 % 1009,7 hPa 0,0 l/m 0 min 0 min 0 W/m 6,4 km/h (2 Bft) 93,62 %
29.03.2023 22:48 13,1 C 11,7 C 7,8 C 86 % 1009,5 hPa 0,0 l/m 0 min 0 min 0 W/m 12,9 km/h (3 Bft) 91,49 %
29.03.2023 22:50 12,9 C 11,7 C 7,8 C 86 % 1009,5 hPa 0,0 l/m 0 min 0 min 0 W/m 12,9 km/h (3 Bft) 97,87 %
29.03.2023 22:52 12,9 C 11,7 C 7,8 C 86 % 1009,5 hPa 0,0 l/m 0 min 0 min 0 W/m 6,4 km/h (2 Bft) 97,56 %
29.03.2023 22:54 12,9 C 11,7 C 7,8 C 86 % 1009,4 hPa 0,0 l/m 0 min 0 min 0 W/m 6,4 km/h (2 Bft) 95,74 %
29.03.2023 22:56 12,9 C 11,7 C 7,8 C 86 % 1009,5 hPa 0,0 l/m 0 min 0 min 0 W/m 12,9 km/h (3 Bft) 97,87 %
29.03.2023 22:58 12,8 C 11,7 C 7,8 C 86 % 1009,4 hPa 0,0 l/m 0 min 0 min 0 W/m 6,4 km/h (2 Bft) 100,00 %
29.03.2023 23:00 12,8 C 11,7 C 7,8 C 86 % 1009,4 hPa 0,0 l/m 0 min 0 min 0 W/m 12,9 km/h (3 Bft) 97,92 %
29.03.2023 23:02 12,8 C 11,7 C 7,8 C 86 % 1009,4 hPa 0,0 l/m 0 min 0 min 0 W/m 6,4 km/h (2 Bft) 100,00 %
29.03.2023 23:04 12,7 C 11,7 C 7,8 C 87 % 1009,4 hPa 0,0 l/m 0 min 0 min 0 W/m 6,4 km/h (2 Bft) 100,00 %
29.03.2023 23:06 12,7 C 11,7 C 7,8 C 87 % 1009,3 hPa 0,0 l/m 0 min 0 min 0 W/m 6,4 km/h (2 Bft) 97,87 %
29.03.2023 23:08 12,7 C 11,7 C 7,8 C 87 % 1009,2 hPa 0,0 l/m 0 min 0 min 0 W/m 6,4 km/h (2 Bft) 100,00 %
29.03.2023 23:10 12,7 C 11,7 C 7,8 C 87 % 1009,2 hPa 0,0 l/m 0 min 0 min 0 W/m 6,4 km/h (2 Bft) 100,00 %
29.03.2023 23:12 12,6 C 11,7 C 7,8 C 87 % 1009,2 hPa 0,0 l/m 0 min 0 min 0 W/m 6,4 km/h (2 Bft) 98,00 %
29.03.2023 23:14 12,6 C 11,7 C 7,8 C 87 % 1009,1 hPa 0,0 l/m 0 min 0 min 0 W/m 12,9 km/h (3 Bft) 100,00 %
29.03.2023 23:16 12,6 C 11,7 C 7,8 C 87 % 1009,1 hPa 0,0 l/m 0 min 0 min 0 W/m 12,9 km/h (3 Bft) 100,00 %
29.03.2023 23:18 12,6 C 11,7 C 7,8 C 87 % 1008,9 hPa 0,0 l/m 0 min 0 min 0 W/m 6,4 km/h (2 Bft) 98,31 %
29.03.2023 23:20 12,6 C 11,7 C 7,8 C 87 % 1008,9 hPa 0,0 l/m 0 min 0 min 0 W/m 12,9 km/h (3 Bft) 97,14 %
29.03.2023 23:22 12,6 C 11,7 C 7,8 C 87 % 1008,9 hPa 0,0 l/m 0 min 0 min 0 W/m 12,9 km/h (3 Bft) 100,00 %
29.03.2023 23:24 12,5 C 11,7 C 7,8 C 87 % 1008,9 hPa 0,0 l/m 0 min 0 min 0 W/m 12,9 km/h (3 Bft) 100,00 %
29.03.2023 23:26 12,5 C 11,7 C 7,8 C 87 % 1008,9 hPa 0,0 l/m 0 min 0 min 0 W/m 6,4 km/h (2 Bft) 97,87 %
29.03.2023 23:28 12,5 C 11,7 C 7,8 C 88 % 1008,9 hPa 0,0 l/m 0 min 0 min 0 W/m 12,9 km/h (3 Bft) 100,00 %
29.03.2023 23:30 12,5 C 11,7 C 7,8 C 88 % 1008,8 hPa 0,0 l/m 0 min 0 min 0 W/m 16,1 km/h (3 Bft) 100,00 %
29.03.2023 23:32 12,4 C 11,7 C 7,8 C 88 % 1008,8 hPa 0,0 l/m 0 min 0 min 0 W/m 12,9 km/h (3 Bft) 100,00 %
29.03.2023 23:34 12,4 C 11,7 C 7,8 C 88 % 1008,8 hPa 0,0 l/m 0 min 0 min 0 W/m 6,4 km/h (2 Bft) 100,00 %
29.03.2023 23:36 12,4 C 11,7 C 7,8 C 88 % 1008,8 hPa 0,0 l/m 0 min 0 min 0 W/m 12,9 km/h (3 Bft) 100,00 %
29.03.2023 23:38 12,4 C 11,7 C 7,8 C 88 % 1008,7 hPa 0,0 l/m 0 min 0 min 0 W/m 12,9 km/h (3 Bft) 100,00 %
29.03.2023 23:40 12,4 C 11,7 C 7,8 C 88 % 1008,6 hPa 0,0 l/m 0 min 0 min 0 W/m 12,9 km/h (3 Bft) 100,00 %
29.03.2023 23:42 12,4 C 11,7 C 7,8 C 88 % 1008,6 hPa 0,0 l/m 0 min 0 min 0 W/m 12,9 km/h (3 Bft) 56,52 %
29.03.2023 23:44 12,4 C 11,7 C 7,8 C 88 % 1008,6 hPa 0,0 l/m 0 min 0 min 0 W/m 16,1 km/h (3 Bft) 97,87 %
29.03.2023 23:46 12,4 C 11,7 C 7,8 C 88 % 1008,6 hPa 0,0 l/m 0 min 0 min 0 W/m 19,3 km/h (3 Bft) 100,00 %
29.03.2023 23:48 12,4 C 11,7 C 7,8 C 88 % 1008,7 hPa 0,0 l/m 0 min 0 min 0 W/m 12,9 km/h (3 Bft) 100,00 %
29.03.2023 23:50 12,4 C 11,7 C 7,8 C 88 % 1008,7 hPa 0,0 l/m 0 min 0 min 0 W/m 6,4 km/h (2 Bft) 100,00 %
29.03.2023 23:52 12,4 C 11,7 C 7,8 C 88 % 1008,7 hPa 0,0 l/m 0 min 0 min 0 W/m 12,9 km/h (3 Bft) 100,00 %
29.03.2023 23:54 12,4 C 11,7 C 7,8 C 88 % 1008,7 hPa 0,0 l/m 0 min 0 min 0 W/m 12,9 km/h (3 Bft) 95,74 %
29.03.2023 23:56 12,4 C 11,7 C 7,8 C 88 % 1008,7 hPa 0,0 l/m 0 min 0 min 0 W/m 12,9 km/h (3 Bft) 95,74 %
29.03.2023 23:58 12,4 C 11,7 C 7,8 C 88 % 1008,7 hPa 0,0 l/m 0 min 0 min 0 W/m 16,1 km/h (3 Bft) 97,83 %
_ Min-Zeit 01:10 00:16 00:00 17:04 23:40 - - - - 05:16 20:06
Minimum _ 5,2 C 4,4 C 0,6 C 72 % 1008,6 hPa - - - - 3,2 km/h (1 Bft) 44,68 %
_ Max-Zeit 17:14 12:44 12:46 07:32 00:00 07:00 12:12 00:00 12:44 14:04 00:00
Maximum _ 16,1 C 18,9 C 12,2 C 94 % 1019,9 hPa 0,2 l/m 4 min 0 min 719 W/m 41,8 km/h
S-SW (6 Bft)
100,00 %
Durchschnitt _ 10,4 C 10,1 C 6,1 C 84 % 1014,6 hPa #0,2 l/m #1:44 h #0 min. 164 W/m 12,6 km/h (3 Bft) 96,95 %
© 2023 W. Hausmann